Wetterdaten: Samstag, 30.05.2015
Datum Zeit Temp. Aussen +5cm Feuchte Auss BlattFeu 1 Luftdruck Regen Sonnenschein Regendauer Solar Windben
30.05.2015 00:00 9,1 C 8,9 C 92 % 15 lf 1008,1 hPa 0,0 l/m 0 min 2 min 0 W/m 14,6 km/h (3 Bft)
30.05.2015 00:02 9,1 C 8,9 C 92 % 15 lf 1008,1 hPa 0,0 l/m 0 min 2 min 0 W/m 10,5 km/h (2 Bft)
30.05.2015 00:05 9,1 C 8,9 C 92 % 15 lf 1008,1 hPa 0,0 l/m 0 min 2 min 0 W/m 16,7 km/h (3 Bft)
30.05.2015 00:06 9,1 C 8,9 C 93 % 15 lf 1008,1 hPa 0,0 l/m 0 min 1 min 0 W/m 14,6 km/h (3 Bft)
30.05.2015 00:08 9,1 C 8,9 C 93 % 15 lf 1008,1 hPa 0,0 l/m 0 min 0 min 0 W/m 23,0 km/h (4 Bft)
30.05.2015 00:10 9,1 C 8,9 C 93 % 15 lf 1008,1 hPa 0,0 l/m 0 min 0 min 0 W/m 12,6 km/h (3 Bft)
30.05.2015 00:12 9,1 C 8,9 C 93 % 15 lf 1008,3 hPa 0,0 l/m 0 min 2 min 0 W/m 18,8 km/h (3 Bft)
30.05.2015 00:14 9,1 C 8,9 C 93 % 15 lf 1008,2 hPa 0,0 l/m 0 min 2 min 0 W/m 16,7 km/h (3 Bft)
30.05.2015 00:16 9,1 C 8,9 C 93 % 15 lf 1008,1 hPa 0,0 l/m 0 min 2 min 0 W/m 14,6 km/h (3 Bft)
30.05.2015 00:18 9,1 C 8,9 C 93 % 15 lf 1008,0 hPa 0,0 l/m 0 min 0 min 0 W/m 18,8 km/h (3 Bft)
30.05.2015 00:20 9,1 C 8,9 C 93 % 15 lf 1008,1 hPa 0,0 l/m 0 min 0 min 0 W/m 18,8 km/h (3 Bft)
30.05.2015 00:22 9,1 C 8,9 C 93 % 15 lf 1008,3 hPa 0,0 l/m 0 min 0 min 0 W/m 27,2 km/h (4 Bft)
30.05.2015 00:24 9,1 C 8,9 C 93 % 15 lf 1008,3 hPa 0,0 l/m 0 min 0 min 0 W/m 25,1 km/h (4 Bft)
30.05.2015 00:26 9,1 C 8,9 C 93 % 15 lf 1008,4 hPa 0,0 l/m 0 min 0 min 0 W/m 25,1 km/h (4 Bft)
30.05.2015 00:28 9,1 C 8,9 C 93 % 15 lf 1008,3 hPa 0,0 l/m 0 min 0 min 0 W/m 25,1 km/h (4 Bft)
30.05.2015 00:30 9,1 C 8,9 C 93 % 15 lf 1008,3 hPa 0,0 l/m 0 min 0 min 0 W/m 20,9 km/h (4 Bft)
30.05.2015 00:32 9,1 C 8,9 C 94 % 15 lf 1008,2 hPa 0,0 l/m 0 min 0 min 0 W/m 20,9 km/h (4 Bft)
30.05.2015 00:34 9,1 C 8,9 C 94 % 15 lf 1008,2 hPa 0,0 l/m 0 min 2 min 0 W/m 20,9 km/h (4 Bft)
30.05.2015 00:36 9,1 C 8,9 C 94 % 15 lf 1008,3 hPa 0,0 l/m 0 min 0 min 0 W/m 20,9 km/h (4 Bft)
30.05.2015 00:38 9,2 C 8,9 C 94 % 15 lf 1008,3 hPa 0,0 l/m 0 min 0 min 0 W/m 25,1 km/h (4 Bft)
30.05.2015 00:40 9,2 C 8,9 C 94 % 15 lf 1008,2 hPa 0,0 l/m 0 min 0 min 0 W/m 18,8 km/h (3 Bft)
30.05.2015 00:42 9,2 C 8,9 C 94 % 15 lf 1008,1 hPa 0,0 l/m 0 min 0 min 0 W/m 16,7 km/h (3 Bft)
30.05.2015 00:44 9,2 C 8,9 C 94 % 15 lf 1008,1 hPa 0,0 l/m 0 min 0 min 0 W/m 12,6 km/h (3 Bft)
30.05.2015 00:46 9,2 C 8,9 C 94 % 15 lf 1008,2 hPa 0,0 l/m 0 min 0 min 0 W/m 18,8 km/h (3 Bft)
30.05.2015 00:48 9,2 C 8,9 C 94 % 15 lf 1008,1 hPa 0,0 l/m 0 min 0 min 0 W/m 16,7 km/h (3 Bft)
30.05.2015 00:50 9,2 C 8,9 C 94 % 15 lf 1008,1 hPa 0,0 l/m 0 min 0 min 0 W/m 18,8 km/h (3 Bft)
30.05.2015 00:52 9,2 C 8,9 C 94 % 15 lf 1008,2 hPa 0,0 l/m 0 min 0 min 0 W/m 18,8 km/h (3 Bft)
30.05.2015 00:54 9,2 C 8,9 C 94 % 15 lf 1008,3 hPa 0,0 l/m 0 min 0 min 0 W/m 20,9 km/h (4 Bft)
30.05.2015 00:56 9,2 C 8,9 C 94 % 15 lf 1008,4 hPa 0,0 l/m 0 min 0 min 0 W/m 16,7 km/h (3 Bft)
30.05.2015 00:58 9,2 C 8,9 C 94 % 15 lf 1008,3 hPa 0,0 l/m 0 min 0 min 0 W/m 20,9 km/h (4 Bft)
30.05.2015 01:00 9,2 C 8,9 C 94 % 15 lf 1008,4 hPa 0,0 l/m 0 min 0 min 0 W/m 23,0 km/h (4 Bft)
30.05.2015 01:02 9,2 C 8,9 C 94 % 15 lf 1008,3 hPa 0,0 l/m 0 min 0 min 0 W/m 14,6 km/h (3 Bft)
30.05.2015 01:04 9,2 C 8,9 C 94 % 15 lf 1008,3 hPa 0,0 l/m 0 min 0 min 0 W/m 18,8 km/h (3 Bft)
30.05.2015 01:06 9,2 C 8,9 C 94 % 15 lf 1008,3 hPa 0,0 l/m 0 min 0 min 0 W/m 18,8 km/h (3 Bft)
30.05.2015 01:08 9,2 C 8,9 C 94 % 15 lf 1008,3 hPa 0,0 l/m 0 min 0 min 0 W/m 18,8 km/h (3 Bft)
30.05.2015 01:10 9,2 C 8,9 C 94 % 15 lf 1008,3 hPa 0,0 l/m 0 min 0 min 0 W/m 16,7 km/h (3 Bft)
30.05.2015 01:12 9,2 C 8,9 C 94 % 15 lf 1008,3 hPa 0,0 l/m 0 min 0 min 0 W/m 16,7 km/h (3 Bft)
30.05.2015 01:14 9,2 C 8,9 C 94 % 15 lf 1008,4 hPa 0,0 l/m 0 min 0 min 0 W/m 14,6 km/h (3 Bft)
30.05.2015 01:16 9,2 C 8,9 C 94 % 15 lf 1008,4 hPa 0,0 l/m 0 min 0 min 0 W/m 16,7 km/h (3 Bft)
30.05.2015 01:18 9,2 C 8,9 C 94 % 15 lf 1008,4 hPa 0,0 l/m 0 min 0 min 0 W/m 20,9 km/h (4 Bft)
30.05.2015 01:20 9,2 C 8,9 C 94 % 15 lf 1008,5 hPa 0,0 l/m 0 min 0 min 0 W/m 16,7 km/h (3 Bft)
30.05.2015 01:22 9,2 C 8,9 C 94 % 15 lf 1008,4 hPa 0,0 l/m 0 min 0 min 0 W/m 18,8 km/h (3 Bft)
30.05.2015 01:24 9,2 C 8,9 C 94 % 15 lf 1008,4 hPa 0,0 l/m 0 min 0 min 0 W/m 20,9 km/h (4 Bft)
30.05.2015 01:26 9,2 C 8,9 C 94 % 15 lf 1008,5 hPa 0,0 l/m 0 min 0 min 0 W/m 16,7 km/h (3 Bft)
30.05.2015 01:28 9,2 C 8,9 C 94 % 15 lf 1008,5 hPa 0,0 l/m 0 min 0 min 0 W/m 14,6 km/h (3 Bft)
30.05.2015 01:30 9,2 C 8,9 C 94 % 15 lf 1008,5 hPa 0,0 l/m 0 min 0 min 0 W/m 12,6 km/h (3 Bft)
30.05.2015 01:32 9,2 C 8,9 C 94 % 15 lf 1008,5 hPa 0,0 l/m 0 min 0 min 0 W/m 20,9 km/h (4 Bft)
30.05.2015 01:34 9,1 C 8,9 C 94 % 15 lf 1008,5 hPa 0,0 l/m 0 min 0 min 0 W/m 23,0 km/h (4 Bft)
30.05.2015 01:36 9,1 C 8,9 C 95 % 15 lf 1008,7 hPa 0,0 l/m 0 min 0 min 0 W/m 12,6 km/h (3 Bft)
30.05.2015 01:38 9,1 C 8,9 C 95 % 15 lf 1008,5 hPa 0,0 l/m 0 min 0 min 0 W/m 10,5 km/h (2 Bft)
30.05.2015 01:40 9,1 C 8,9 C 95 % 15 lf 1008,6 hPa 0,0 l/m 0 min 0 min 0 W/m 16,7 km/h (3 Bft)
30.05.2015 01:42 9,1 C 8,9 C 95 % 15 lf 1008,5 hPa 0,0 l/m 0 min 0 min 0 W/m 8,4 km/h (2 Bft)
30.05.2015 01:44 9,2 C 8,9 C 95 % 15 lf 1008,5 hPa 0,0 l/m 0 min 0 min 0 W/m 20,9 km/h (4 Bft)
30.05.2015 01:46 9,2 C 8,9 C 95 % 15 lf 1008,6 hPa 0,0 l/m 0 min 0 min 0 W/m 27,2 km/h (4 Bft)
30.05.2015 01:48 9,2 C 8,9 C 95 % 15 lf 1008,6 hPa 0,0 l/m 0 min 0 min 0 W/m 23,0 km/h (4 Bft)
30.05.2015 01:50 9,2 C 8,9 C 95 % 15 lf 1008,7 hPa 0,0 l/m 0 min 0 min 0 W/m 23,0 km/h (4 Bft)
30.05.2015 01:52 9,2 C 8,9 C 95 % 15 lf 1008,6 hPa 0,0 l/m 0 min 0 min 0 W/m 18,8 km/h (3 Bft)
30.05.2015 01:54 9,2 C 8,9 C 95 % 15 lf 1008,6 hPa 0,0 l/m 0 min 0 min 0 W/m 23,0 km/h (4 Bft)
30.05.2015 01:56 9,2 C 8,9 C 95 % 15 lf 1008,6 hPa 0,0 l/m 0 min 0 min 0 W/m 16,7 km/h (3 Bft)
30.05.2015 01:58 9,2 C 8,9 C 95 % 15 lf 1008,6 hPa 0,0 l/m 0 min 0 min 0 W/m 14,6 km/h (3 Bft)
30.05.2015 02:00 9,2 C 8,9 C 95 % 15 lf 1008,6 hPa 0,0 l/m 0 min 0 min 0 W/m 18,8 km/h (3 Bft)
30.05.2015 02:02 9,2 C 8,9 C 95 % 15 lf 1008,7 hPa 0,0 l/m 0 min 0 min 0 W/m 18,8 km/h (3 Bft)
30.05.2015 02:04 9,2 C 8,9 C 95 % 15 lf 1008,6 hPa 0,0 l/m 0 min 0 min 0 W/m 18,8 km/h (3 Bft)
30.05.2015 02:06 9,2 C 8,9 C 95 % 15 lf 1008,6 hPa 0,0 l/m 0 min 0 min 0 W/m 20,9 km/h (4 Bft)
30.05.2015 02:08 9,2 C 8,9 C 95 % 15 lf 1008,7 hPa 0,0 l/m 0 min 0 min 0 W/m 12,6 km/h (3 Bft)
30.05.2015 02:10 9,2 C 8,9 C 95 % 15 lf 1008,7 hPa 0,0 l/m 0 min 0 min 0 W/m 18,8 km/h (3 Bft)
30.05.2015 02:12 9,2 C 8,9 C 95 % 15 lf 1008,6 hPa 0,0 l/m 0 min 0 min 0 W/m 14,6 km/h (3 Bft)
30.05.2015 02:14 9,2 C 8,9 C 95 % 15 lf 1008,7 hPa 0,0 l/m 0 min 0 min 0 W/m 18,8 km/h (3 Bft)
30.05.2015 02:16 9,2 C 8,9 C 95 % 15 lf 1008,7 hPa 0,0 l/m 0 min 0 min 0 W/m 23,0 km/h (4 Bft)
30.05.2015 02:18 9,2 C 8,9 C 95 % 15 lf 1008,7 hPa 0,0 l/m 0 min 0 min 0 W/m 16,7 km/h (3 Bft)
30.05.2015 02:20 9,2 C 8,9 C 95 % 15 lf 1008,7 hPa 0,0 l/m 0 min 0 min 0 W/m 14,6 km/h (3 Bft)
30.05.2015 02:22 9,2 C 8,9 C 95 % 15 lf 1008,7 hPa 0,0 l/m 0 min 0 min 0 W/m 12,6 km/h (3 Bft)
30.05.2015 02:24 9,3 C 8,9 C 95 % 15 lf 1008,7 hPa 0,0 l/m 0 min 0 min 0 W/m 20,9 km/h (4 Bft)
30.05.2015 02:26 9,3 C 8,9 C 95 % 15 lf 1008,7 hPa 0,0 l/m 0 min 0 min 0 W/m 8,4 km/h (2 Bft)
30.05.2015 02:28 9,3 C 8,9 C 95 % 15 lf 1008,7 hPa 0,0 l/m 0 min 0 min 0 W/m 16,7 km/h (3 Bft)
30.05.2015 02:30 9,3 C 8,9 C 95 % 15 lf 1008,7 hPa 0,0 l/m 0 min 0 min 0 W/m 16,7 km/h (3 Bft)
30.05.2015 02:32 9,3 C 8,9 C 95 % 15 lf 1008,7 hPa 0,0 l/m 0 min 0 min 0 W/m 18,8 km/h (3 Bft)
30.05.2015 02:34 9,3 C 8,9 C 95 % 15 lf 1008,7 hPa 0,0 l/m 0 min 0 min 0 W/m 27,2 km/h (4 Bft)
30.05.2015 02:36 9,3 C 8,9 C 95 % 15 lf 1008,7 hPa 0,0 l/m 0 min 0 min 0 W/m 12,6 km/h (3 Bft)
30.05.2015 02:38 9,3 C 8,9 C 95 % 15 lf 1008,8 hPa 0,0 l/m 0 min 0 min 0 W/m 16,7 km/h (3 Bft)
30.05.2015 02:40 9,4 C 8,9 C 95 % 15 lf 1008,9 hPa 0,0 l/m 0 min 0 min 0 W/m 12,6 km/h (3 Bft)
30.05.2015 02:42 9,4 C 8,9 C 95 % 15 lf 1008,9 hPa 0,0 l/m 0 min 0 min 0 W/m 10,5 km/h (2 Bft)
30.05.2015 02:44 9,4 C 8,9 C 95 % 15 lf 1008,9 hPa 0,0 l/m 0 min 0 min 0 W/m 12,6 km/h (3 Bft)
30.05.2015 02:46 9,4 C 9,4 C 95 % 15 lf 1008,9 hPa 0,0 l/m 0 min 0 min 0 W/m 12,6 km/h (3 Bft)
30.05.2015 02:48 9,4 C 8,9 C 95 % 15 lf 1008,9 hPa 0,0 l/m 0 min 0 min 0 W/m 16,7 km/h (3 Bft)
30.05.2015 02:50 9,4 C 8,9 C 95 % 15 lf 1008,9 hPa 0,0 l/m 0 min 0 min 0 W/m 10,5 km/h (2 Bft)
30.05.2015 02:52 9,4 C 8,9 C 96 % 15 lf 1008,8 hPa 0,0 l/m 0 min 0 min 0 W/m 16,7 km/h (3 Bft)
30.05.2015 02:54 9,4 C 8,9 C 96 % 15 lf 1008,9 hPa 0,0 l/m 0 min 0 min 0 W/m 12,6 km/h (3 Bft)
30.05.2015 02:56 9,4 C 8,9 C 96 % 15 lf 1008,9 hPa 0,0 l/m 0 min 0 min 0 W/m 16,7 km/h (3 Bft)
30.05.2015 02:58 9,4 C 8,9 C 96 % 15 lf 1008,9 hPa 0,0 l/m 0 min 0 min 0 W/m 12,6 km/h (3 Bft)
30.05.2015 03:00 9,4 C 8,9 C 95 % 15 lf 1008,9 hPa 0,0 l/m 0 min 0 min 0 W/m 16,7 km/h (3 Bft)
30.05.2015 03:02 9,3 C 8,9 C 95 % 15 lf 1008,9 hPa 0,0 l/m 0 min 0 min 0 W/m 20,9 km/h (4 Bft)
30.05.2015 03:04 9,3 C 8,9 C 95 % 15 lf 1008,9 hPa 0,0 l/m 0 min 0 min 0 W/m 18,8 km/h (3 Bft)
30.05.2015 03:06 9,3 C 8,9 C 95 % 15 lf 1008,9 hPa 0,0 l/m 0 min 0 min 0 W/m 10,5 km/h (2 Bft)
30.05.2015 03:08 9,3 C 8,9 C 95 % 15 lf 1008,9 hPa 0,0 l/m 0 min 0 min 0 W/m 16,7 km/h (3 Bft)
30.05.2015 03:10 9,3 C 8,9 C 95 % 15 lf 1009,0 hPa 0,0 l/m 0 min 0 min 0 W/m 12,6 km/h (3 Bft)
30.05.2015 03:12 9,2 C 8,9 C 95 % 15 lf 1009,0 hPa 0,0 l/m 0 min 0 min 0 W/m 10,5 km/h (2 Bft)
30.05.2015 03:14 9,2 C 8,9 C 95 % 15 lf 1008,9 hPa 0,0 l/m 0 min 0 min 0 W/m 16,7 km/h (3 Bft)
30.05.2015 03:16 9,2 C 8,9 C 95 % 15 lf 1009,0 hPa 0,0 l/m 0 min 0 min 0 W/m 10,5 km/h (2 Bft)
30.05.2015 03:18 9,2 C 8,9 C 95 % 15 lf 1009,0 hPa 0,0 l/m 0 min 0 min 0 W/m 10,5 km/h (2 Bft)
30.05.2015 03:20 9,2 C 8,9 C 95 % 15 lf 1009,0 hPa 0,0 l/m 0 min 0 min 0 W/m 16,7 km/h (3 Bft)
30.05.2015 03:22 9,1 C 8,9 C 95 % 15 lf 1009,0 hPa 0,0 l/m 0 min 0 min 0 W/m 10,5 km/h (2 Bft)
30.05.2015 03:24 9,1 C 8,9 C 95 % 15 lf 1009,0 hPa 0,0 l/m 0 min 0 min 0 W/m 8,4 km/h (2 Bft)
30.05.2015 03:26 9,1 C 8,9 C 95 % 15 lf 1009,0 hPa 0,0 l/m 0 min 0 min 0 W/m 16,7 km/h (3 Bft)
30.05.2015 03:28 9,1 C 8,9 C 95 % 15 lf 1009,0 hPa 0,0 l/m 0 min 0 min 0 W/m 18,8 km/h (3 Bft)
30.05.2015 03:30 9,1 C 8,9 C 95 % 15 lf 1009,1 hPa 0,0 l/m 0 min 0 min 0 W/m 14,6 km/h (3 Bft)
30.05.2015 03:32 9,1 C 8,9 C 95 % 15 lf 1009,1 hPa 0,0 l/m 0 min 0 min 0 W/m 20,9 km/h (4 Bft)
30.05.2015 03:34 9,0 C 8,9 C 95 % 15 lf 1009,1 hPa 0,0 l/m 0 min 0 min 0 W/m 12,6 km/h (3 Bft)
30.05.2015 03:36 9,0 C 8,9 C 95 % 15 lf 1009,2 hPa 0,0 l/m 0 min 0 min 0 W/m 18,8 km/h (3 Bft)
30.05.2015 03:38 9,0 C 8,9 C 95 % 15 lf 1009,2 hPa 0,0 l/m 0 min 0 min 0 W/m 12,6 km/h (3 Bft)
30.05.2015 03:40 8,9 C 8,9 C 95 % 15 lf 1009,2 hPa 0,0 l/m 0 min 0 min 0 W/m 12,6 km/h (3 Bft)
30.05.2015 03:42 8,9 C 8,9 C 95 % 15 lf 1009,3 hPa 0,0 l/m 0 min 0 min 0 W/m 10,5 km/h (2 Bft)
30.05.2015 03:44 8,9 C 8,9 C 95 % 15 lf 1009,3 hPa 0,0 l/m 0 min 0 min 0 W/m 18,8 km/h (3 Bft)
30.05.2015 03:46 8,9 C 8,9 C 95 % 15 lf 1009,4 hPa 0,0 l/m 0 min 0 min 0 W/m 12,6 km/h (3 Bft)
30.05.2015 03:48 8,9 C 8,9 C 95 % 15 lf 1009,4 hPa 0,0 l/m 0 min 0 min 0 W/m 16,7 km/h (3 Bft)
30.05.2015 03:50 8,9 C 8,9 C 95 % 15 lf 1009,4 hPa 0,0 l/m 0 min 0 min 0 W/m 16,7 km/h (3 Bft)
30.05.2015 03:52 8,9 C 8,9 C 95 % 15 lf 1009,4 hPa 0,0 l/m 0 min 0 min 0 W/m 14,6 km/h (3 Bft)
30.05.2015 03:54 8,9 C 8,9 C 95 % 15 lf 1009,4 hPa 0,0 l/m 0 min 0 min 0 W/m 12,6 km/h (3 Bft)
30.05.2015 03:56 8,9 C 8,9 C 95 % 15 lf 1009,4 hPa 0,0 l/m 0 min 0 min 0 W/m 14,6 km/h (3 Bft)
30.05.2015 03:58 8,9 C 8,9 C 95 % 15 lf 1009,4 hPa 0,0 l/m 0 min 0 min 0 W/m 14,6 km/h (3 Bft)
30.05.2015 04:00 8,9 C 8,9 C 95 % 15 lf 1009,5 hPa 0,0 l/m 0 min 0 min 0 W/m 12,6 km/h (3 Bft)
30.05.2015 04:02 8,9 C 8,9 C 95 % 15 lf 1009,5 hPa 0,0 l/m 0 min 0 min 0 W/m 14,6 km/h (3 Bft)
30.05.2015 04:04 8,9 C 8,9 C 95 % 15 lf 1009,5 hPa 0,0 l/m 0 min 0 min 0 W/m 14,6 km/h (3 Bft)
30.05.2015 04:06 8,9 C 8,9 C 95 % 15 lf 1009,5 hPa 0,0 l/m 0 min 0 min 0 W/m 14,6 km/h (3 Bft)
30.05.2015 04:08 8,9 C 8,9 C 96 % 15 lf 1009,6 hPa 0,0 l/m 0 min 0 min 0 W/m 16,7 km/h (3 Bft)
30.05.2015 04:10 8,9 C 8,9 C 96 % 15 lf 1009,6 hPa 0,0 l/m 0 min 0 min 0 W/m 18,8 km/h (3 Bft)
30.05.2015 04:12 9,0 C 8,9 C 96 % 15 lf 1009,5 hPa 0,0 l/m 0 min 0 min 0 W/m 16,7 km/h (3 Bft)
30.05.2015 04:14 9,0 C 8,9 C 96 % 15 lf 1009,5 hPa 0,0 l/m 0 min 0 min 0 W/m 16,7 km/h (3 Bft)
30.05.2015 04:16 9,0 C 8,9 C 96 % 15 lf 1009,5 hPa 0,0 l/m 0 min 0 min 0 W/m 12,6 km/h (3 Bft)
30.05.2015 04:18 9,0 C 8,9 C 96 % 15 lf 1009,5 hPa 0,0 l/m 0 min 0 min 0 W/m 16,7 km/h (3 Bft)
30.05.2015 04:20 9,1 C 8,9 C 96 % 15 lf 1009,5 hPa 0,0 l/m 0 min 0 min 0 W/m 12,6 km/h (3 Bft)
30.05.2015 04:22 9,1 C 8,9 C 96 % 15 lf 1009,4 hPa 0,0 l/m 0 min 0 min 0 W/m 14,6 km/h (3 Bft)
30.05.2015 04:24 9,1 C 8,9 C 96 % 15 lf 1009,5 hPa 0,0 l/m 0 min 0 min 0 W/m 16,7 km/h (3 Bft)
30.05.2015 04:26 9,1 C 8,9 C 96 % 15 lf 1009,5 hPa 0,0 l/m 0 min 0 min 0 W/m 14,6 km/h (3 Bft)
30.05.2015 04:28 9,1 C 8,9 C 96 % 15 lf 1009,5 hPa 0,0 l/m 0 min 0 min 0 W/m 16,7 km/h (3 Bft)
30.05.2015 04:30 9,1 C 8,9 C 96 % 15 lf 1009,5 hPa 0,0 l/m 0 min 0 min 0 W/m 14,6 km/h (3 Bft)
30.05.2015 04:32 9,1 C 8,9 C 96 % 15 lf 1009,6 hPa 0,0 l/m 0 min 0 min 0 W/m 12,6 km/h (3 Bft)
30.05.2015 04:34 9,1 C 8,9 C 96 % 15 lf 1009,6 hPa 0,0 l/m 0 min 0 min 0 W/m 10,5 km/h (2 Bft)
30.05.2015 04:36 9,1 C 8,9 C 96 % 15 lf 1009,6 hPa 0,0 l/m 0 min 0 min 0 W/m 10,5 km/h (2 Bft)
30.05.2015 04:38 9,1 C 8,9 C 96 % 15 lf 1009,5 hPa 0,0 l/m 0 min 0 min 0 W/m 18,8 km/h (3 Bft)
30.05.2015 04:40 9,1 C 8,9 C 96 % 15 lf 1009,5 hPa 0,0 l/m 0 min 0 min 0 W/m 16,7 km/h (3 Bft)
30.05.2015 04:42 9,1 C 8,9 C 96 % 15 lf 1009,5 hPa 0,0 l/m 0 min 0 min 0 W/m 12,6 km/h (3 Bft)
30.05.2015 04:44 9,1 C 8,9 C 96 % 15 lf 1009,5 hPa 0,0 l/m 0 min 0 min 0 W/m 12,6 km/h (3 Bft)
30.05.2015 04:46 9,1 C 8,9 C 96 % 15 lf 1009,6 hPa 0,0 l/m 0 min 0 min 0 W/m 10,5 km/h (2 Bft)
30.05.2015 04:48 9,1 C 8,9 C 96 % 15 lf 1009,5 hPa 0,0 l/m 0 min 0 min 0 W/m 10,5 km/h (2 Bft)
30.05.2015 04:50 9,1 C 8,9 C 96 % 15 lf 1009,5 hPa 0,0 l/m 0 min 0 min 0 W/m 12,6 km/h (3 Bft)
30.05.2015 04:52 9,1 C 8,9 C 96 % 15 lf 1009,6 hPa 0,0 l/m 0 min 0 min 0 W/m 10,5 km/h (2 Bft)
30.05.2015 04:54 9,0 C 8,9 C 96 % 15 lf 1009,7 hPa 0,0 l/m 0 min 0 min 0 W/m 10,5 km/h (2 Bft)
30.05.2015 04:56 9,0 C 8,9 C 96 % 15 lf 1009,8 hPa 0,0 l/m 0 min 0 min 0 W/m 14,6 km/h (3 Bft)
30.05.2015 04:58 9,0 C 8,9 C 96 % 15 lf 1009,8 hPa 0,0 l/m 0 min 0 min 0 W/m 12,6 km/h (3 Bft)
30.05.2015 05:00 8,9 C 8,9 C 96 % 15 lf 1009,7 hPa 0,0 l/m 0 min 0 min 0 W/m 12,6 km/h (3 Bft)
30.05.2015 05:02 8,9 C 8,9 C 96 % 15 lf 1009,8 hPa 0,0 l/m 0 min 0 min 0 W/m 12,6 km/h (3 Bft)
30.05.2015 05:04 8,9 C 8,9 C 96 % 15 lf 1009,8 hPa 0,0 l/m 0 min 0 min 0 W/m 12,6 km/h (3 Bft)
30.05.2015 05:06 8,9 C 8,9 C 96 % 15 lf 1009,9 hPa 0,0 l/m 0 min 0 min 0 W/m 8,4 km/h (2 Bft)
30.05.2015 05:08 8,9 C 8,9 C 96 % 15 lf 1009,9 hPa 0,0 l/m 0 min 0 min 0 W/m 14,6 km/h (3 Bft)
30.05.2015 05:10 8,8 C 8,9 C 96 % 15 lf 1009,9 hPa 0,0 l/m 0 min 0 min 0 W/m 14,6 km/h (3 Bft)
30.05.2015 05:12 8,8 C 8,9 C 96 % 15 lf 1010,0 hPa 0,0 l/m 0 min 0 min 0 W/m 10,5 km/h (2 Bft)
30.05.2015 05:14 8,8 C 8,9 C 96 % 15 lf 1010,0 hPa 0,0 l/m 0 min 0 min 0 W/m 14,6 km/h (3 Bft)
30.05.2015 05:16 8,8 C 8,9 C 96 % 15 lf 1010,0 hPa 0,0 l/m 0 min 0 min 0 W/m 8,4 km/h (2 Bft)
30.05.2015 05:18 8,8 C 8,9 C 96 % 15 lf 1010,1 hPa 0,0 l/m 0 min 0 min 0 W/m 10,5 km/h (2 Bft)
30.05.2015 05:20 8,7 C 8,9 C 96 % 15 lf 1010,0 hPa 0,0 l/m 0 min 0 min 0 W/m 20,9 km/h (4 Bft)
30.05.2015 05:22 8,7 C 8,9 C 96 % 15 lf 1010,1 hPa 0,0 l/m 0 min 0 min 0 W/m 12,6 km/h (3 Bft)
30.05.2015 05:24 8,7 C 8,9 C 96 % 15 lf 1010,1 hPa 0,0 l/m 0 min 0 min 0 W/m 16,7 km/h (3 Bft)
30.05.2015 05:26 8,7 C 8,9 C 96 % 15 lf 1010,1 hPa 0,0 l/m 0 min 0 min 2 W/m 18,8 km/h (3 Bft)
30.05.2015 05:28 8,7 C 8,9 C 95 % 15 lf 1010,2 hPa 0,0 l/m 0 min 0 min 5 W/m 12,6 km/h (3 Bft)
30.05.2015 05:30 8,7 C 8,9 C 95 % 15 lf 1010,2 hPa 0,0 l/m 0 min 0 min 5 W/m 14,6 km/h (3 Bft)
30.05.2015 05:32 8,7 C 8,9 C 95 % 15 lf 1010,2 hPa 0,0 l/m 0 min 0 min 5 W/m 12,6 km/h (3 Bft)
30.05.2015 05:34 8,7 C 8,9 C 95 % 15 lf 1010,2 hPa 0,0 l/m 0 min 0 min 5 W/m 12,6 km/h (3 Bft)
30.05.2015 05:36 8,7 C 8,9 C 95 % 15 lf 1010,2 hPa 0,0 l/m 0 min 0 min 6 W/m 10,5 km/h (2 Bft)
30.05.2015 05:38 8,7 C 8,9 C 95 % 15 lf 1010,2 hPa 0,0 l/m 0 min 0 min 7 W/m 14,6 km/h (3 Bft)
30.05.2015 05:40 8,7 C 8,9 C 95 % 15 lf 1010,2 hPa 0,0 l/m 0 min 0 min 7 W/m 14,6 km/h (3 Bft)
30.05.2015 05:42 8,7 C 8,9 C 95 % 15 lf 1010,2 hPa 0,0 l/m 0 min 0 min 7 W/m 10,5 km/h (2 Bft)
30.05.2015 05:44 8,7 C 8,9 C 95 % 15 lf 1010,2 hPa 0,0 l/m 0 min 0 min 7 W/m 12,6 km/h (3 Bft)
30.05.2015 05:46 8,7 C 8,9 C 95 % 15 lf 1010,2 hPa 0,0 l/m 0 min 0 min 7 W/m 10,5 km/h (2 Bft)
30.05.2015 05:48 8,7 C 8,9 C 95 % 15 lf 1010,2 hPa 0,0 l/m 0 min 0 min 9 W/m 8,4 km/h (2 Bft)
30.05.2015 05:50 8,7 C 8,9 C 95 % 15 lf 1010,3 hPa 0,0 l/m 0 min 0 min 9 W/m 10,5 km/h (2 Bft)
30.05.2015 05:52 8,7 C 8,9 C 95 % 15 lf 1010,3 hPa 0,0 l/m 0 min 0 min 11 W/m 10,5 km/h (2 Bft)
30.05.2015 05:54 8,7 C 8,9 C 95 % 15 lf 1010,3 hPa 0,0 l/m 0 min 0 min 12 W/m 12,6 km/h (3 Bft)
30.05.2015 05:56 8,8 C 8,9 C 95 % 15 lf 1010,3 hPa 0,0 l/m 0 min 0 min 17 W/m 10,5 km/h (2 Bft)
30.05.2015 05:58 8,8 C 8,9 C 95 % 15 lf 1010,3 hPa 0,0 l/m 0 min 0 min 16 W/m 10,5 km/h (2 Bft)
30.05.2015 06:00 8,8 C 8,9 C 95 % 15 lf 1010,4 hPa 0,0 l/m 0 min 0 min 16 W/m 8,4 km/h (2 Bft)
30.05.2015 06:02 8,8 C 8,9 C 95 % 15 lf 1010,5 hPa 0,0 l/m 0 min 0 min 14 W/m 10,5 km/h (2 Bft)
30.05.2015 06:05 8,8 C 8,9 C 95 % 15 lf 1010,5 hPa 0,0 l/m 0 min 0 min 14 W/m 12,6 km/h (3 Bft)
30.05.2015 06:08 8,8 C 8,9 C 95 % 15 lf 1010,6 hPa 0,0 l/m 0 min 0 min 17 W/m 14,6 km/h (3 Bft)
30.05.2015 06:10 8,9 C 8,9 C 95 % 15 lf 1010,6 hPa 0,0 l/m 0 min 0 min 19 W/m 10,5 km/h (2 Bft)
30.05.2015 06:12 8,9 C 8,9 C 95 % 15 lf 1010,7 hPa 0,0 l/m 0 min 0 min 20 W/m 12,6 km/h (3 Bft)
30.05.2015 06:14 8,9 C 8,3 C 95 % 15 lf 1010,7 hPa 0,0 l/m 0 min 0 min 22 W/m 14,6 km/h (3 Bft)
30.05.2015 06:16 8,9 C 8,3 C 95 % 15 lf 1010,7 hPa 0,0 l/m 0 min 0 min 25 W/m 8,4 km/h (2 Bft)
30.05.2015 06:18 8,9 C 8,3 C 95 % 15 lf 1010,7 hPa 0,0 l/m 0 min 0 min 26 W/m 12,6 km/h (3 Bft)
30.05.2015 06:20 8,9 C 8,9 C 95 % 15 lf 1010,7 hPa 0,0 l/m 0 min 0 min 28 W/m 6,3 km/h (2 Bft)
30.05.2015 06:22 8,9 C 8,3 C 95 % 15 lf 1010,7 hPa 0,0 l/m 0 min 0 min 41 W/m 12,6 km/h (3 Bft)
30.05.2015 06:24 8,8 C 8,3 C 95 % 15 lf 1010,8 hPa 0,0 l/m 0 min 0 min 51 W/m 12,6 km/h (3 Bft)
30.05.2015 06:26 8,8 C 8,9 C 95 % 15 lf 1010,8 hPa 0,0 l/m 0 min 0 min 44 W/m 12,6 km/h (3 Bft)
30.05.2015 06:28 8,8 C 8,9 C 95 % 15 lf 1010,8 hPa 0,0 l/m 0 min 0 min 44 W/m 12,6 km/h (3 Bft)
30.05.2015 06:30 8,8 C 8,9 C 95 % 15 lf 1010,8 hPa 0,0 l/m 0 min 0 min 37 W/m 12,6 km/h (3 Bft)
30.05.2015 06:32 8,8 C 8,3 C 95 % 15 lf 1010,8 hPa 0,0 l/m 0 min 0 min 54 W/m 12,6 km/h (3 Bft)
30.05.2015 06:34 8,8 C 8,9 C 95 % 15 lf 1010,8 hPa 0,0 l/m 0 min 0 min 64 W/m 10,5 km/h (2 Bft)
30.05.2015 06:36 8,8 C 8,9 C 95 % 15 lf 1010,8 hPa 0,0 l/m 2 min 0 min 84 W/m 12,6 km/h (3 Bft)
30.05.2015 06:38 8,8 C 8,9 C 95 % 15 lf 1010,9 hPa 0,0 l/m 0 min 0 min 72 W/m 12,6 km/h (3 Bft)
30.05.2015 06:40 8,8 C 8,9 C 95 % 15 lf 1010,9 hPa 0,0 l/m 0 min 0 min 68 W/m 10,5 km/h (2 Bft)
30.05.2015 06:42 8,9 C 8,9 C 95 % 14 lf 1010,9 hPa 0,0 l/m 2 min 0 min 85 W/m 14,6 km/h (3 Bft)
30.05.2015 06:44 8,9 C 8,9 C 95 % 14 lf 1010,9 hPa 0,0 l/m 2 min 0 min 100 W/m 14,6 km/h (3 Bft)
30.05.2015 06:46 8,9 C 8,9 C 95 % 14 lf 1010,9 hPa 0,0 l/m 2 min 0 min 113 W/m 14,6 km/h (3 Bft)
30.05.2015 06:48 8,9 C 8,9 C 95 % 13 lf 1010,9 hPa 0,0 l/m 2 min 0 min 138 W/m 12,6 km/h (3 Bft)
30.05.2015 06:50 8,9 C 8,9 C 95 % 13 lf 1010,9 hPa 0,0 l/m 2 min 0 min 129 W/m 14,6 km/h (3 Bft)
30.05.2015 06:52 8,9 C 8,9 C 95 % 13 lf 1010,9 hPa 0,0 l/m 2 min 0 min 105 W/m 20,9 km/h (4 Bft)
30.05.2015 06:54 8,9 C 8,9 C 95 % 13 lf 1010,9 hPa 0,0 l/m 2 min 0 min 125 W/m 14,6 km/h (3 Bft)
30.05.2015 06:56 8,9 C 8,9 C 95 % 12 lf 1011,0 hPa 0,0 l/m 2 min 0 min 134 W/m 16,7 km/h (3 Bft)
30.05.2015 06:58 8,9 C 8,9 C 95 % 12 lf 1011,0 hPa 0,0 l/m 2 min 0 min 152 W/m 16,7 km/h (3 Bft)
30.05.2015 07:00 8,9 C 8,9 C 95 % 10 lf 1011,0 hPa 0,0 l/m 2 min 0 min 180 W/m 18,8 km/h (3 Bft)
30.05.2015 07:02 8,9 C 8,9 C 95 % 7 lf 1011,1 hPa 0,0 l/m 2 min 0 min 197 W/m 16,7 km/h (3 Bft)
30.05.2015 07:04 8,9 C 8,9 C 95 % 4 lf 1011,0 hPa 0,0 l/m 2 min 0 min 168 W/m 14,6 km/h (3 Bft)
30.05.2015 07:06 8,9 C 8,9 C 95 % 4 lf 1011,1 hPa 0,0 l/m 2 min 0 min 195 W/m 18,8 km/h (3 Bft)
30.05.2015 07:08 9,0 C 8,9 C 95 % 3 lf 1011,1 hPa 0,0 l/m 2 min 0 min 178 W/m 16,7 km/h (3 Bft)
30.05.2015 07:10 9,0 C 8,9 C 95 % 2 lf 1011,1 hPa 0,0 l/m 0 min 0 min 104 W/m 16,7 km/h (3 Bft)
30.05.2015 07:12 9,1 C 8,9 C 95 % 1 lf 1011,2 hPa 0,0 l/m 0 min 0 min 87 W/m 10,5 km/h (2 Bft)
30.05.2015 07:14 9,1 C 8,9 C 95 % 1 lf 1011,2 hPa 0,0 l/m 0 min 0 min 79 W/m 23,0 km/h (4 Bft)
30.05.2015 07:16 9,1 C 8,9 C 95 % 1 lf 1011,2 hPa 0,0 l/m 0 min 0 min 84 W/m 14,6 km/h (3 Bft)
30.05.2015 07:18 9,1 C 8,9 C 95 % 1 lf 1011,2 hPa 0,0 l/m 0 min 0 min 85 W/m 16,7 km/h (3 Bft)
30.05.2015 07:20 9,1 C 8,9 C 95 % 1 lf 1011,2 hPa 0,0 l/m 0 min 0 min 85 W/m 20,9 km/h (4 Bft)
30.05.2015 07:22 9,1 C 8,9 C 95 % 1 lf 1011,3 hPa 0,0 l/m 0 min 0 min 80 W/m 18,8 km/h (3 Bft)
30.05.2015 07:24 9,1 C 8,9 C 95 % 1 lf 1011,2 hPa 0,0 l/m 0 min 0 min 73 W/m 25,1 km/h (4 Bft)
30.05.2015 07:26 9,1 C 8,9 C 95 % 1 lf 1011,3 hPa 0,0 l/m 0 min 0 min 81 W/m 25,1 km/h (4 Bft)
30.05.2015 07:28 9,1 C 8,9 C 95 % 1 lf 1011,3 hPa 0,0 l/m 0 min 0 min 92 W/m 14,6 km/h (3 Bft)
30.05.2015 07:30 9,1 C 8,9 C 95 % 1 lf 1011,3 hPa 0,0 l/m 0 min 0 min 99 W/m 16,7 km/h (3 Bft)
30.05.2015 07:32 9,1 C 8,9 C 95 % 1 lf 1011,3 hPa 0,0 l/m 0 min 0 min 107 W/m 14,6 km/h (3 Bft)
30.05.2015 07:34 9,2 C 8,9 C 95 % 1 lf 1011,3 hPa 0,0 l/m 0 min 0 min 140 W/m 14,6 km/h (3 Bft)
30.05.2015 07:36 9,2 C 9,4 C 95 % 0 lf 1011,3 hPa 0,0 l/m 2 min 0 min 228 W/m 20,9 km/h (4 Bft)
30.05.2015 07:38 9,2 C 9,4 C 95 % 0 lf 1011,4 hPa 0,0 l/m 2 min 0 min 183 W/m 20,9 km/h (4 Bft)
30.05.2015 07:40 9,2 C 9,4 C 95 % 1 lf 1011,4 hPa 0,0 l/m 0 min 0 min 124 W/m 16,7 km/h (3 Bft)
30.05.2015 07:42 9,3 C 9,4 C 95 % 4 lf 1011,3 hPa 0,0 l/m 0 min 0 min 100 W/m 16,7 km/h (3 Bft)
30.05.2015 07:44 9,3 C 9,4 C 95 % 4 lf 1011,4 hPa 0,0 l/m 0 min 2 min 107 W/m 23,0 km/h (4 Bft)
30.05.2015 07:46 9,3 C 9,4 C 95 % 4 lf 1011,3 hPa 0,0 l/m 0 min 0 min 94 W/m 14,6 km/h (3 Bft)
30.05.2015 07:48 9,3 C 9,4 C 95 % 2 lf 1011,3 hPa 0,0 l/m 0 min 0 min 115 W/m 14,6 km/h (3 Bft)
30.05.2015 07:50 9,3 C 9,4 C 95 % 1 lf 1011,3 hPa 0,0 l/m 0 min 0 min 100 W/m 12,6 km/h (3 Bft)
30.05.2015 07:52 9,4 C 8,9 C 95 % 1 lf 1011,3 hPa 0,0 l/m 0 min 0 min 85 W/m 10,5 km/h (2 Bft)
30.05.2015 07:54 9,4 C 8,9 C 95 % 1 lf 1011,3 hPa 0,0 l/m 0 min 0 min 73 W/m 10,5 km/h (2 Bft)
30.05.2015 07:56 9,4 C 8,9 C 95 % 1 lf 1011,3 hPa 0,0 l/m 0 min 0 min 97 W/m 14,6 km/h (3 Bft)
30.05.2015 07:58 9,4 C 8,9 C 95 % 1 lf 1011,3 hPa 0,0 l/m 0 min 0 min 153 W/m 16,7 km/h (3 Bft)
30.05.2015 08:00 9,3 C 8,9 C 95 % 1 lf 1011,4 hPa 0,0 l/m 2 min 0 min 263 W/m 18,8 km/h (3 Bft)
30.05.2015 08:02 9,3 C 8,9 C 95 % 1 lf 1011,4 hPa 0,0 l/m 2 min 0 min 328 W/m 14,6 km/h (3 Bft)
30.05.2015 08:04 9,3 C 8,9 C 95 % 1 lf 1011,5 hPa 0,0 l/m 2 min 0 min 330 W/m 16,7 km/h (3 Bft)
30.05.2015 08:06 9,3 C 8,9 C 95 % 1 lf 1011,5 hPa 0,0 l/m 0 min 0 min 174 W/m 18,8 km/h (3 Bft)
30.05.2015 08:08 9,3 C 8,9 C 95 % 1 lf 1011,5 hPa 0,0 l/m 2 min 0 min 274 W/m 23,0 km/h (4 Bft)
30.05.2015 08:10 9,3 C 8,9 C 95 % 1 lf 1011,6 hPa 0,0 l/m 2 min 0 min 349 W/m 18,8 km/h (3 Bft)
30.05.2015 08:12 9,3 C 8,9 C 95 % 0 lf 1011,6 hPa 0,0 l/m 2 min 0 min 366 W/m 16,7 km/h (3 Bft)
30.05.2015 08:14 9,4 C 8,9 C 95 % 0 lf 1011,6 hPa 0,0 l/m 2 min 0 min 389 W/m 18,8 km/h (3 Bft)
30.05.2015 08:16 9,4 C 8,9 C 95 % 0 lf 1011,7 hPa 0,0 l/m 2 min 0 min 404 W/m 25,1 km/h (4 Bft)
30.05.2015 08:18 9,4 C 8,9 C 95 % 0 lf 1011,7 hPa 0,0 l/m 2 min 0 min 388 W/m 16,7 km/h (3 Bft)
30.05.2015 08:20 9,5 C 8,9 C 95 % 0 lf 1011,8 hPa 0,0 l/m 2 min 0 min 346 W/m 20,9 km/h (4 Bft)
30.05.2015 08:22 9,6 C 8,9 C 95 % 0 lf 1011,8 hPa 0,0 l/m 2 min 0 min 419 W/m 20,9 km/h (4 Bft)
30.05.2015 08:24 9,6 C 8,9 C 95 % 0 lf 1011,9 hPa 0,0 l/m 2 min 0 min 410 W/m 18,8 km/h (3 Bft)
30.05.2015 08:26 9,6 C 8,9 C 95 % 0 lf 1011,9 hPa 0,0 l/m 2 min 0 min 214 W/m 14,6 km/h (3 Bft)
30.05.2015 08:28 9,7 C 8,9 C 95 % 0 lf 1011,9 hPa 0,0 l/m 2 min 0 min 376 W/m 18,8 km/h (3 Bft)
30.05.2015 08:30 9,7 C 8,9 C 95 % 0 lf 1011,9 hPa 0,0 l/m 2 min 0 min 411 W/m 14,6 km/h (3 Bft)
30.05.2015 08:32 9,7 C 8,9 C 95 % 0 lf 1011,9 hPa 0,0 l/m 2 min 0 min 409 W/m 23,0 km/h (4 Bft)
30.05.2015 08:34 9,8 C 8,9 C 95 % 0 lf 1011,9 hPa 0,0 l/m 2 min 0 min 421 W/m 18,8 km/h (3 Bft)
30.05.2015 08:36 9,8 C 8,9 C 94 % 0 lf 1011,9 hPa 0,0 l/m 2 min 0 min 428 W/m 18,8 km/h (3 Bft)
30.05.2015 08:38 9,9 C 8,9 C 94 % 0 lf 1011,9 hPa 0,0 l/m 2 min 0 min 438 W/m 16,7 km/h (3 Bft)
30.05.2015 08:40 9,9 C 9,4 C 95 % 0 lf 1011,9 hPa 0,0 l/m 2 min 0 min 445 W/m 16,7 km/h (3 Bft)
30.05.2015 08:42 10,1 C 9,4 C 94 % 0 lf 1012,0 hPa 0,0 l/m 2 min 0 min 444 W/m 18,8 km/h (3 Bft)
30.05.2015 08:44 10,1 C 9,4 C 94 % 0 lf 1012,0 hPa 0,0 l/m 2 min 0 min 454 W/m 16,7 km/h (3 Bft)
30.05.2015 08:46 10,2 C 9,4 C 94 % 0 lf 1012,0 hPa 0,0 l/m 2 min 0 min 461 W/m 20,9 km/h (4 Bft)
30.05.2015 08:48 10,3 C 9,4 C 94 % 0 lf 1012,0 hPa 0,0 l/m 2 min 0 min 462 W/m 25,1 km/h (4 Bft)
30.05.2015 08:50 10,4 C 9,4 C 94 % 0 lf 1012,0 hPa 0,0 l/m 2 min 0 min 470 W/m 23,0 km/h (4 Bft)
30.05.2015 08:52 10,5 C 9,4 C 94 % 0 lf 1012,0 hPa 0,0 l/m 2 min 0 min 476 W/m 14,6 km/h (3 Bft)
30.05.2015 08:54 10,6 C 9,4 C 94 % 0 lf 1012,0 hPa 0,0 l/m 2 min 0 min 478 W/m 14,6 km/h (3 Bft)
30.05.2015 08:56 10,7 C 9,4 C 93 % 0 lf 1012,0 hPa 0,0 l/m 2 min 0 min 486 W/m 14,6 km/h (3 Bft)
30.05.2015 08:58 10,8 C 9,4 C 93 % 0 lf 1012,0 hPa 0,0 l/m 2 min 0 min 495 W/m 18,8 km/h (3 Bft)
30.05.2015 09:00 10,9 C 9,4 C 93 % 0 lf 1012,0 hPa 0,0 l/m 2 min 0 min 502 W/m 25,1 km/h (4 Bft)
30.05.2015 09:02 11,0 C 9,4 C 92 % 0 lf 1012,0 hPa 0,0 l/m 2 min 0 min 507 W/m 23,0 km/h (4 Bft)
30.05.2015 09:04 11,1 C 9,4 C 92 % 0 lf 1012,1 hPa 0,0 l/m 2 min 0 min 510 W/m 20,9 km/h (4 Bft)
30.05.2015 09:06 11,2 C 9,4 C 91 % 0 lf 1012,1 hPa 0,0 l/m 2 min 0 min 523 W/m 18,8 km/h (3 Bft)
30.05.2015 09:08 11,3 C 9,4 C 90 % 0 lf 1012,1 hPa 0,0 l/m 2 min 0 min 533 W/m 14,6 km/h (3 Bft)
30.05.2015 09:10 11,4 C 9,4 C 90 % 0 lf 1012,1 hPa 0,0 l/m 2 min 0 min 534 W/m 23,0 km/h (4 Bft)
30.05.2015 09:12 11,6 C 10,0 C 89 % 0 lf 1012,1 hPa 0,0 l/m 2 min 0 min 545 W/m 20,9 km/h (4 Bft)
30.05.2015 09:14 11,7 C 10,0 C 88 % 0 lf 1012,1 hPa 0,0 l/m 2 min 0 min 521 W/m 18,8 km/h (3 Bft)
30.05.2015 09:16 11,8 C 10,0 C 88 % 0 lf 1012,1 hPa 0,0 l/m 2 min 0 min 572 W/m 23,0 km/h (4 Bft)
30.05.2015 09:18 11,9 C 10,0 C 86 % 0 lf 1012,1 hPa 0,0 l/m 2 min 0 min 575 W/m 25,1 km/h (4 Bft)
30.05.2015 09:20 12,1 C 10,0 C 86 % 0 lf 1012,1 hPa 0,0 l/m 2 min 0 min 568 W/m 20,9 km/h (4 Bft)
30.05.2015 09:22 12,2 C 10,0 C 85 % 0 lf 1012,2 hPa 0,0 l/m 2 min 0 min 599 W/m 18,8 km/h (3 Bft)
30.05.2015 09:24 12,3 C 10,0 C 84 % 0 lf 1012,3 hPa 0,0 l/m 2 min 0 min 614 W/m 25,1 km/h (4 Bft)
30.05.2015 09:26 12,4 C 10,0 C 83 % 0 lf 1012,3 hPa 0,0 l/m 2 min 0 min 633 W/m 18,8 km/h (3 Bft)
30.05.2015 09:28 12,5 C 10,6 C 83 % 0 lf 1012,3 hPa 0,0 l/m 2 min 0 min 640 W/m 23,0 km/h (4 Bft)
30.05.2015 09:30 12,6 C 10,6 C 81 % 0 lf 1012,4 hPa 0,0 l/m 2 min 0 min 670 W/m 25,1 km/h (4 Bft)
30.05.2015 09:32 12,7 C 10,6 C 81 % 0 lf 1012,3 hPa 0,0 l/m 2 min 0 min 689 W/m 31,4 km/h (5 Bft)
30.05.2015 09:34 12,7 C 10,6 C 80 % 0 lf 1012,5 hPa 0,0 l/m 2 min 0 min 717 W/m 29,3 km/h (5 Bft)
30.05.2015 09:36 12,8 C 10,6 C 78 % 0 lf 1012,4 hPa 0,0 l/m 2 min 0 min 625 W/m 31,4 km/h (5 Bft)
30.05.2015 09:38 12,8 C 10,6 C 78 % 0 lf 1012,5 hPa 0,0 l/m 2 min 0 min 598 W/m 27,2 km/h (4 Bft)
30.05.2015 09:40 12,9 C 10,6 C 78 % 0 lf 1012,4 hPa 0,0 l/m 2 min 0 min 494 W/m 29,3 km/h (5 Bft)
30.05.2015 09:42 12,9 C 10,6 C 76 % 0 lf 1012,4 hPa 0,0 l/m 2 min 0 min 391 W/m 37,7 km/h (5 Bft)
30.05.2015 09:44 13,0 C 11,1 C 77 % 0 lf 1012,5 hPa 0,0 l/m 2 min 0 min 410 W/m 16,7 km/h (3 Bft)
30.05.2015 09:46 13,1 C 11,1 C 77 % 0 lf 1012,5 hPa 0,0 l/m 2 min 0 min 403 W/m 20,9 km/h (4 Bft)
30.05.2015 09:48 13,1 C 11,7 C 76 % 0 lf 1012,5 hPa 0,0 l/m 2 min 0 min 436 W/m 20,9 km/h (4 Bft)
30.05.2015 09:50 13,2 C 11,7 C 77 % 0 lf 1012,5 hPa 0,0 l/m 2 min 0 min 347 W/m 14,6 km/h (3 Bft)
30.05.2015 09:52 13,2 C 11,7 C 77 % 0 lf 1012,5 hPa 0,0 l/m 0 min 0 min 237 W/m 14,6 km/h (3 Bft)
30.05.2015 09:54 13,2 C 11,1 C 77 % 0 lf 1012,5 hPa 0,0 l/m 0 min 0 min 212 W/m 20,9 km/h (4 Bft)
30.05.2015 09:56 13,2 C 11,1 C 76 % 0 lf 1012,6 hPa 0,0 l/m 0 min 0 min 228 W/m 23,0 km/h (4 Bft)
30.05.2015 09:58 13,1 C 11,1 C 73 % 0 lf 1012,6 hPa 0,0 l/m 0 min 0 min 236 W/m 25,1 km/h (4 Bft)
30.05.2015 10:00 13,0 C 11,7 C 72 % 0 lf 1012,6 hPa 0,0 l/m 0 min 0 min 236 W/m 27,2 km/h (4 Bft)
30.05.2015 10:02 13,0 C 11,7 C 72 % 0 lf 1012,6 hPa 0,0 l/m 0 min 0 min 228 W/m 29,3 km/h (5 Bft)
30.05.2015 10:04 13,0 C 11,1 C 73 % 0 lf 1012,6 hPa 0,0 l/m 0 min 0 min 166 W/m 29,3 km/h (5 Bft)
30.05.2015 10:06 12,9 C 11,1 C 72 % 0 lf 1012,6 hPa 0,0 l/m 0 min 0 min 211 W/m 23,0 km/h (4 Bft)
30.05.2015 10:08 12,9 C 11,7 C 72 % 0 lf 1012,7 hPa 0,0 l/m 0 min 0 min 246 W/m 25,1 km/h (4 Bft)
30.05.2015 10:10 12,9 C 12,8 C 73 % 0 lf 1012,6 hPa 0,0 l/m 2 min 0 min 385 W/m 25,1 km/h (4 Bft)
30.05.2015 10:12 12,9 C 13,9 C 72 % 0 lf 1012,6 hPa 0,0 l/m 2 min 0 min 801 W/m 31,4 km/h (5 Bft)
30.05.2015 10:14 13,1 C 14,4 C 71 % 0 lf 1012,6 hPa 0,0 l/m 2 min 0 min 723 W/m 25,1 km/h (4 Bft)
30.05.2015 10:16 13,2 C 14,4 C 71 % 0 lf 1012,6 hPa 0,0 l/m 2 min 0 min 633 W/m 20,9 km/h (4 Bft)
30.05.2015 10:18 13,3 C 13,3 C 70 % 0 lf 1012,6 hPa 0,0 l/m 2 min 0 min 659 W/m 27,2 km/h (4 Bft)
30.05.2015 10:20 13,4 C 14,4 C 71 % 0 lf 1012,6 hPa 0,0 l/m 2 min 0 min 726 W/m 20,9 km/h (4 Bft)
30.05.2015 10:22 13,5 C 15,0 C 71 % 0 lf 1012,6 hPa 0,0 l/m 2 min 0 min 810 W/m 23,0 km/h (4 Bft)
30.05.2015 10:24 13,7 C 14,4 C 71 % 0 lf 1012,6 hPa 0,0 l/m 2 min 0 min 819 W/m 25,1 km/h (4 Bft)
30.05.2015 10:26 13,8 C 13,9 C 71 % 0 lf 1012,6 hPa 0,0 l/m 2 min 0 min 846 W/m 29,3 km/h (5 Bft)
30.05.2015 10:28 14,1 C 13,3 C 69 % 0 lf 1012,6 hPa 0,0 l/m 2 min 0 min 895 W/m 31,4 km/h (5 Bft)
30.05.2015 10:30 14,2 C 13,3 C 68 % 0 lf 1012,6 hPa 0,0 l/m 2 min 0 min 953 W/m 29,3 km/h (5 Bft)
30.05.2015 10:32 14,3 C 12,8 C 68 % 0 lf 1012,6 hPa 0,0 l/m 2 min 0 min 836 W/m 27,2 km/h (4 Bft)
30.05.2015 10:34 14,3 C 12,8 C 66 % 0 lf 1012,7 hPa 0,0 l/m 2 min 0 min 436 W/m 27,2 km/h (4 Bft)
30.05.2015 10:36 14,3 C 12,8 C 66 % 0 lf 1012,6 hPa 0,0 l/m 2 min 0 min 896 W/m 23,0 km/h (4 Bft)
30.05.2015 10:38 14,4 C 12,8 C 67 % 0 lf 1012,7 hPa 0,0 l/m 2 min 0 min 528 W/m 20,9 km/h (4 Bft)
30.05.2015 10:40 14,4 C 12,2 C 65 % 0 lf 1012,7 hPa 0,0 l/m 0 min 0 min 274 W/m 20,9 km/h (4 Bft)
30.05.2015 10:42 14,3 C 12,2 C 65 % 0 lf 1012,6 hPa 0,0 l/m 0 min 0 min 246 W/m 23,0 km/h (4 Bft)
30.05.2015 10:44 14,2 C 12,2 C 65 % 0 lf 1012,6 hPa 0,0 l/m 0 min 0 min 245 W/m 25,1 km/h (4 Bft)
30.05.2015 10:46 14,2 C 11,7 C 64 % 0 lf 1012,7 hPa 0,0 l/m 0 min 0 min 198 W/m 25,1 km/h (4 Bft)
30.05.2015 10:48 14,2 C 11,7 C 64 % 0 lf 1012,7 hPa 0,0 l/m 0 min 0 min 134 W/m 20,9 km/h (4 Bft)
30.05.2015 10:50 14,0 C 11,1 C 64 % 1 lf 1012,7 hPa 0,0 l/m 0 min 2 min 93 W/m 23,0 km/h (4 Bft)
30.05.2015 10:52 13,9 C 11,1 C 66 % 15 lf 1012,7 hPa 0,0 l/m 0 min 2 min 99 W/m 31,4 km/h (5 Bft)
30.05.2015 10:54 13,7 C 11,1 C 66 % 15 lf 1012,7 hPa 0,0 l/m 0 min 0 min 132 W/m 29,3 km/h (5 Bft)
30.05.2015 10:56 13,6 C 11,1 C 66 % 15 lf 1012,8 hPa 0,0 l/m 0 min 2 min 171 W/m 27,2 km/h (4 Bft)
30.05.2015 10:58 13,5 C 11,1 C 67 % 12 lf 1012,8 hPa 0,0 l/m 0 min 0 min 166 W/m 27,2 km/h (4 Bft)
30.05.2015 11:00 13,4 C 11,1 C 67 % 2 lf 1012,8 hPa 0,0 l/m 0 min 0 min 176 W/m 27,2 km/h (4 Bft)
30.05.2015 11:02 13,3 C 11,1 C 67 % 0 lf 1012,7 hPa 0,0 l/m 0 min 0 min 216 W/m 33,5 km/h (5 Bft)
30.05.2015 11:04 13,3 C 11,7 C 68 % 0 lf 1012,7 hPa 0,0 l/m 0 min 0 min 216 W/m 18,8 km/h (3 Bft)
30.05.2015 11:06 13,3 C 12,2 C 69 % 0 lf 1012,8 hPa 0,0 l/m 0 min 0 min 216 W/m 20,9 km/h (4 Bft)
30.05.2015 11:08 13,4 C 12,8 C 70 % 0 lf 1012,7 hPa 0,0 l/m 2 min 0 min 626 W/m 29,3 km/h (5 Bft)
30.05.2015 11:10 13,6 C 12,8 C 68 % 0 lf 1012,7 hPa 0,0 l/m 2 min 0 min 441 W/m 31,4 km/h (5 Bft)
30.05.2015 11:12 13,6 C 12,8 C 67 % 0 lf 1012,7 hPa 0,0 l/m 0 min 0 min 325 W/m 27,2 km/h (4 Bft)
30.05.2015 11:14 13,7 C 13,3 C 66 % 0 lf 1012,7 hPa 0,0 l/m 2 min 0 min 485 W/m 23,0 km/h (4 Bft)
30.05.2015 11:16 13,8 C 13,3 C 66 % 0 lf 1012,7 hPa 0,0 l/m 2 min 0 min 564 W/m 23,0 km/h (4 Bft)
30.05.2015 11:18 13,9 C 13,3 C 68 % 0 lf 1012,8 hPa 0,0 l/m 2 min 0 min 535 W/m 29,3 km/h (5 Bft)
30.05.2015 11:20 14,1 C 12,8 C 65 % 0 lf 1012,7 hPa 0,0 l/m 0 min 0 min 312 W/m 31,4 km/h (5 Bft)
30.05.2015 11:22 14,2 C 12,2 C 65 % 4 lf 1012,7 hPa 0,0 l/m 0 min 0 min 214 W/m 18,8 km/h (3 Bft)
30.05.2015 11:24 14,2 C 12,2 C 65 % 13 lf 1012,7 hPa 0,0 l/m 0 min 2 min 162 W/m 23,0 km/h (4 Bft)
30.05.2015 11:26 14,2 C 11,7 C 66 % 13 lf 1012,7 hPa 0,0 l/m 0 min 2 min 141 W/m 25,1 km/h (4 Bft)
30.05.2015 11:28 14,1 C 11,7 C 67 % 15 lf 1012,8 hPa 0,0 l/m 0 min 2 min 136 W/m 18,8 km/h (3 Bft)
30.05.2015 11:30 14,1 C 11,1 C 68 % 15 lf 1012,8 hPa 0,0 l/m 0 min 2 min 118 W/m 27,2 km/h (4 Bft)
30.05.2015 11:32 13,9 C 10,6 C 70 % 15 lf 1012,9 hPa 0,4 l/m 0 min 2 min 106 W/m 25,1 km/h (4 Bft)
30.05.2015 11:34 13,7 C 10,0 C 70 % 15 lf 1012,7 hPa 0,0 l/m 0 min 2 min 123 W/m 18,8 km/h (3 Bft)
30.05.2015 11:36 13,5 C 10,0 C 71 % 15 lf 1012,8 hPa 0,0 l/m 0 min 2 min 167 W/m 18,8 km/h (3 Bft)
30.05.2015 11:38 13,4 C 10,6 C 73 % 15 lf 1012,8 hPa 0,0 l/m 2 min 2 min 434 W/m 14,6 km/h (3 Bft)
30.05.2015 11:40 13,4 C 11,1 C 75 % 15 lf 1012,8 hPa 0,0 l/m 2 min 0 min 999 W/m 14,6 km/h (3 Bft)
30.05.2015 11:42 13,4 C 11,7 C 77 % 15 lf 1012,8 hPa 0,0 l/m 2 min 0 min 668 W/m 20,9 km/h (4 Bft)
30.05.2015 11:44 13,5 C 11,7 C 77 % 15 lf 1012,7 hPa 0,0 l/m 0 min 0 min 388 W/m 16,7 km/h (3 Bft)
30.05.2015 11:46 13,5 C 11,7 C 76 % 15 lf 1012,7 hPa 0,0 l/m 0 min 0 min 388 W/m 20,9 km/h (4 Bft)
30.05.2015 11:48 13,7 C 12,2 C 78 % 15 lf 1012,7 hPa 0,0 l/m 2 min 0 min 449 W/m 16,7 km/h (3 Bft)
30.05.2015 11:50 13,9 C 12,8 C 80 % 15 lf 1012,7 hPa 0,0 l/m 2 min 0 min 684 W/m 8,4 km/h (2 Bft)
30.05.2015 11:52 14,1 C 12,8 C 80 % 15 lf 1012,7 hPa 0,0 l/m 2 min 0 min 413 W/m 12,6 km/h (3 Bft)
30.05.2015 11:54 14,2 C 12,8 C 79 % 14 lf 1012,6 hPa 0,0 l/m 0 min 0 min 387 W/m 16,7 km/h (3 Bft)
30.05.2015 11:56 14,2 C 12,2 C 75 % 13 lf 1012,7 hPa 0,0 l/m 0 min 0 min 223 W/m 10,5 km/h (2 Bft)
30.05.2015 11:58 14,2 C 12,2 C 74 % 8 lf 1012,7 hPa 0,0 l/m 0 min 0 min 171 W/m 18,8 km/h (3 Bft)
30.05.2015 12:00 14,2 C 11,7 C 73 % 3 lf 1012,7 hPa 0,0 l/m 0 min 0 min 202 W/m 23,0 km/h (4 Bft)
30.05.2015 12:02 14,2 C 11,7 C 70 % 0 lf 1012,8 hPa 0,0 l/m 0 min 0 min 275 W/m 27,2 km/h (4 Bft)
30.05.2015 12:06 14,2 C 11,7 C 69 % 0 lf 1012,9 hPa 0,0 l/m 0 min 0 min 260 W/m 27,2 km/h (4 Bft)
30.05.2015 12:08 14,0 C 11,1 C 68 % 0 lf 1013,0 hPa 0,0 l/m 0 min 0 min 196 W/m 35,6 km/h (5 Bft)
30.05.2015 12:10 13,9 C 11,1 C 67 % 0 lf 1013,0 hPa 0,0 l/m 0 min 0 min 252 W/m 31,4 km/h (5 Bft)
30.05.2015 12:12 13,9 C 11,7 C 66 % 0 lf 1013,0 hPa 0,0 l/m 0 min 0 min 345 W/m 35,6 km/h (5 Bft)
30.05.2015 12:14 13,9 C 11,7 C 66 % 0 lf 1013,0 hPa 0,0 l/m 0 min 0 min 335 W/m 52,3 km/h (7 Bft)
30.05.2015 12:16 13,9 C 11,7 C 68 % 0 lf 1013,3 hPa 0,0 l/m 0 min 0 min 354 W/m 29,3 km/h (5 Bft)
30.05.2015 12:18 13,9 C 11,7 C 68 % 0 lf 1013,2 hPa 0,0 l/m 0 min 0 min 370 W/m 29,3 km/h (5 Bft)
30.05.2015 12:20 13,9 C 12,2 C 69 % 0 lf 1013,5 hPa 0,0 l/m 0 min 0 min 279 W/m 25,1 km/h (4 Bft)
30.05.2015 12:22 14,0 C 12,2 C 70 % 0 lf 1013,3 hPa 0,0 l/m 2 min 0 min 629 W/m 31,4 km/h (5 Bft)
30.05.2015 12:24 14,2 C 12,2 C 69 % 0 lf 1013,4 hPa 0,0 l/m 2 min 0 min 988 W/m 37,7 km/h (5 Bft)
30.05.2015 12:26 14,2 C 12,8 C 69 % 0 lf 1013,3 hPa 0,0 l/m 2 min 0 min 977 W/m 29,3 km/h (5 Bft)
30.05.2015 12:28 14,2 C 12,8 C 69 % 0 lf 1013,4 hPa 0,0 l/m 2 min 0 min 964 W/m 25,1 km/h (4 Bft)
30.05.2015 12:30 14,4 C 12,8 C 68 % 0 lf 1013,2 hPa 0,0 l/m 2 min 0 min 967 W/m 20,9 km/h (4 Bft)
30.05.2015 12:32 14,6 C 12,8 C 66 % 0 lf 1013,2 hPa 0,0 l/m 2 min 0 min 968 W/m 23,0 km/h (4 Bft)
30.05.2015 12:34 14,7 C 12,8 C 66 % 0 lf 1013,2 hPa 0,0 l/m 2 min 0 min 990 W/m 25,1 km/h (4 Bft)
30.05.2015 12:36 14,8 C 13,3 C 67 % 0 lf 1013,1 hPa 0,0 l/m 2 min 0 min 1035 W/m 25,1 km/h (4 Bft)
30.05.2015 12:38 15,0 C 13,3 C 65 % 0 lf 1013,1 hPa 0,0 l/m 2 min 0 min 1098 W/m 31,4 km/h (5 Bft)
30.05.2015 12:40 15,1 C 13,3 C 65 % 0 lf 1013,1 hPa 0,0 l/m 2 min 0 min 422 W/m 25,1 km/h (4 Bft)
30.05.2015 12:42 15,2 C 13,3 C 65 % 0 lf 1013,1 hPa 0,0 l/m 0 min 0 min 361 W/m 23,0 km/h (4 Bft)
30.05.2015 12:44 15,2 C 13,3 C 64 % 0 lf 1013,0 hPa 0,0 l/m 0 min 0 min 365 W/m 33,5 km/h (5 Bft)
30.05.2015 12:46 15,1 C 12,8 C 63 % 0 lf 1013,1 hPa 0,0 l/m 0 min 0 min 335 W/m 25,1 km/h (4 Bft)
30.05.2015 12:48 15,0 C 12,8 C 63 % 0 lf 1013,1 hPa 0,0 l/m 0 min 0 min 288 W/m 29,3 km/h (5 Bft)
30.05.2015 12:50 14,9 C 12,8 C 64 % 0 lf 1013,2 hPa 0,0 l/m 0 min 0 min 266 W/m 31,4 km/h (5 Bft)
30.05.2015 12:52 14,8 C 12,2 C 64 % 0 lf 1013,2 hPa 0,0 l/m 0 min 0 min 187 W/m 25,1 km/h (4 Bft)
30.05.2015 12:54 14,8 C 12,2 C 65 % 0 lf 1013,3 hPa 0,0 l/m 0 min 0 min 112 W/m 18,8 km/h (3 Bft)
30.05.2015 12:56 14,5 C 11,1 C 66 % 0 lf 1013,7 hPa 0,0 l/m 0 min 0 min 74 W/m 46,0 km/h (6 Bft)
30.05.2015 12:58 14,2 C 11,1 C 67 % 4 lf 1014,0 hPa 0,0 l/m 0 min 0 min 35 W/m 25,1 km/h (4 Bft)
30.05.2015 13:00 14,0 C 10,6 C 69 % 15 lf 1014,4 hPa 0,0 l/m 0 min 2 min 16 W/m 31,4 km/h (5 Bft)
30.05.2015 13:02 13,7 C 10,0 C 70 % 15 lf 1014,7 hPa 0,0 l/m 0 min 2 min 15 W/m 29,3 km/h (5 Bft)
30.05.2015 13:04 13,3 C 9,4 C 71 % 15 lf 1014,9 hPa 0,0 l/m 0 min 0 min 25 W/m 29,3 km/h (5 Bft)
30.05.2015 13:06 12,9 C 9,4 C 72 % 15 lf 1014,9 hPa 0,2 l/m 0 min 2 min 39 W/m 29,3 km/h (5 Bft)
30.05.2015 13:08 12,6 C 8,9 C 73 % 15 lf 1014,8 hPa 0,4 l/m 0 min 2 min 56 W/m 37,7 km/h (5 Bft)
30.05.2015 13:10 12,2 C 8,9 C 74 % 15 lf 1014,7 hPa 0,2 l/m 0 min 2 min 82 W/m 20,9 km/h (4 Bft)
30.05.2015 13:12 11,8 C 8,9 C 76 % 15 lf 1014,8 hPa 0,0 l/m 0 min 2 min 88 W/m 31,4 km/h (5 Bft)
30.05.2015 13:14 11,6 C 8,9 C 77 % 15 lf 1014,8 hPa 0,2 l/m 0 min 2 min 89 W/m 20,9 km/h (4 Bft)
30.05.2015 13:16 11,3 C 8,9 C 78 % 15 lf 1014,8 hPa 0,0 l/m 0 min 2 min 88 W/m 20,9 km/h (4 Bft)
30.05.2015 13:18 10,9 C 8,9 C 79 % 15 lf 1014,9 hPa 0,2 l/m 0 min 2 min 77 W/m 27,2 km/h (4 Bft)
30.05.2015 13:20 10,7 C 8,9 C 80 % 15 lf 1014,8 hPa 0,2 l/m 0 min 2 min 64 W/m 31,4 km/h (5 Bft)
30.05.2015 13:22 10,5 C 8,9 C 80 % 15 lf 1014,9 hPa 0,2 l/m 0 min 2 min 62 W/m 23,0 km/h (4 Bft)
30.05.2015 13:24 10,3 C 8,9 C 81 % 15 lf 1014,8 hPa 0,2 l/m 0 min 2 min 75 W/m 18,8 km/h (3 Bft)
30.05.2015 13:26 10,2 C 8,9 C 82 % 15 lf 1014,8 hPa 0,0 l/m 0 min 2 min 94 W/m 10,5 km/h (2 Bft)
30.05.2015 13:28 10,0 C 8,9 C 82 % 15 lf 1014,8 hPa 0,0 l/m 0 min 2 min 103 W/m 12,6 km/h (3 Bft)
30.05.2015 13:30 9,9 C 8,9 C 83 % 15 lf 1014,8 hPa 0,0 l/m 0 min 2 min 105 W/m 14,6 km/h (3 Bft)
30.05.2015 13:32 9,7 C 8,9 C 83 % 15 lf 1014,8 hPa 0,0 l/m 0 min 2 min 121 W/m 12,6 km/h (3 Bft)
30.05.2015 13:34 9,7 C 9,4 C 84 % 15 lf 1014,8 hPa 0,2 l/m 0 min 2 min 174 W/m 8,4 km/h (2 Bft)
30.05.2015 13:36 9,6 C 9,4 C 85 % 15 lf 1014,8 hPa 0,0 l/m 0 min 2 min 232 W/m 8,4 km/h (2 Bft)
30.05.2015 13:38 9,6 C 10,0 C 85 % 15 lf 1014,8 hPa 0,0 l/m 0 min 2 min 262 W/m 6,3 km/h (2 Bft)
30.05.2015 13:40 9,5 C 10,0 C 85 % 15 lf 1014,9 hPa 0,0 l/m 0 min 0 min 217 W/m 12,6 km/h (3 Bft)
30.05.2015 13:42 9,6 C 10,0 C 86 % 15 lf 1014,9 hPa 0,0 l/m 0 min 2 min 125 W/m 14,6 km/h (3 Bft)
30.05.2015 13:44 9,6 C 9,4 C 87 % 15 lf 1014,9 hPa 0,0 l/m 0 min 2 min 77 W/m 12,6 km/h (3 Bft)
30.05.2015 13:46 9,5 C 9,4 C 87 % 15 lf 1015,0 hPa 0,0 l/m 0 min 2 min 67 W/m 12,6 km/h (3 Bft)
30.05.2015 13:48 9,5 C 9,4 C 87 % 15 lf 1014,9 hPa 0,0 l/m 0 min 2 min 69 W/m 10,5 km/h (2 Bft)
30.05.2015 13:50 9,5 C 9,4 C 88 % 15 lf 1015,0 hPa 0,0 l/m 0 min 2 min 68 W/m 12,6 km/h (3 Bft)
30.05.2015 13:52 9,4 C 9,4 C 88 % 15 lf 1015,0 hPa 0,0 l/m 0 min 2 min 58 W/m 18,8 km/h (3 Bft)
30.05.2015 13:54 9,4 C 9,4 C 88 % 15 lf 1015,1 hPa 0,0 l/m 0 min 0 min 50 W/m 14,6 km/h (3 Bft)
30.05.2015 13:56 9,4 C 9,4 C 89 % 15 lf 1015,2 hPa 0,0 l/m 0 min 2 min 56 W/m 29,3 km/h (5 Bft)
30.05.2015 13:58 9,3 C 8,9 C 89 % 15 lf 1015,1 hPa 0,0 l/m 0 min 2 min 66 W/m 25,1 km/h (4 Bft)
30.05.2015 14:00 9,3 C 8,9 C 89 % 15 lf 1015,2 hPa 0,2 l/m 0 min 2 min 71 W/m 25,1 km/h (4 Bft)
30.05.2015 14:02 9,2 C 8,9 C 89 % 15 lf 1015,1 hPa 0,0 l/m 0 min 2 min 94 W/m 35,6 km/h (5 Bft)
30.05.2015 14:04 9,2 C 8,9 C 89 % 15 lf 1015,1 hPa 0,0 l/m 0 min 2 min 111 W/m 29,3 km/h (5 Bft)
30.05.2015 14:06 9,1 C 8,9 C 89 % 15 lf 1015,2 hPa 0,0 l/m 0 min 2 min 109 W/m 29,3 km/h (5 Bft)
30.05.2015 14:08 9,1 C 8,9 C 90 % 15 lf 1015,2 hPa 0,2 l/m 0 min 2 min 100 W/m 25,1 km/h (4 Bft)
30.05.2015 14:10 9,1 C 8,9 C 90 % 15 lf 1015,0 hPa 0,0 l/m 0 min 2 min 101 W/m 25,1 km/h (4 Bft)
30.05.2015 14:12 9,1 C 8,9 C 90 % 15 lf 1015,1 hPa 0,0 l/m 0 min 2 min 115 W/m 23,0 km/h (4 Bft)
30.05.2015 14:14 9,1 C 8,9 C 90 % 15 lf 1015,1 hPa 0,0 l/m 0 min 2 min 128 W/m 18,8 km/h (3 Bft)
30.05.2015 14:16 9,0 C 9,4 C 90 % 15 lf 1015,0 hPa 0,0 l/m 0 min 0 min 132 W/m 10,5 km/h (2 Bft)
30.05.2015 14:18 9,1 C 9,4 C 90 % 15 lf 1015,0 hPa 0,0 l/m 0 min 0 min 119 W/m 20,9 km/h (4 Bft)
30.05.2015 14:20 9,0 C 9,4 C 90 % 15 lf 1015,0 hPa 0,0 l/m 0 min 2 min 101 W/m 20,9 km/h (4 Bft)
30.05.2015 14:22 9,0 C 8,9 C 90 % 15 lf 1015,0 hPa 0,0 l/m 0 min 2 min 87 W/m 27,2 km/h (4 Bft)
30.05.2015 14:24 8,9 C 8,9 C 90 % 15 lf 1014,9 hPa 0,0 l/m 0 min 2 min 78 W/m 23,0 km/h (4 Bft)
30.05.2015 14:26 8,9 C 8,9 C 90 % 15 lf 1014,8 hPa 0,0 l/m 0 min 2 min 76 W/m 25,1 km/h (4 Bft)
30.05.2015 14:28 8,9 C 8,9 C 90 % 15 lf 1014,8 hPa 0,0 l/m 0 min 2 min 87 W/m 25,1 km/h (4 Bft)
30.05.2015 14:30 8,9 C 8,9 C 90 % 15 lf 1014,8 hPa 0,0 l/m 0 min 2 min 108 W/m 23,0 km/h (4 Bft)
30.05.2015 14:32 8,9 C 8,9 C 90 % 15 lf 1014,8 hPa 0,2 l/m 0 min 2 min 138 W/m 20,9 km/h (4 Bft)
30.05.2015 14:34 8,9 C 9,4 C 90 % 15 lf 1014,8 hPa 0,0 l/m 0 min 2 min 183 W/m 18,8 km/h (3 Bft)
30.05.2015 14:36 9,0 C 9,4 C 90 % 15 lf 1014,8 hPa 0,0 l/m 0 min 2 min 222 W/m 14,6 km/h (3 Bft)
30.05.2015 14:38 9,1 C 9,4 C 90 % 15 lf 1014,8 hPa 0,0 l/m 0 min 0 min 278 W/m 10,5 km/h (2 Bft)
30.05.2015 14:40 9,1 C 10,0 C 90 % 15 lf 1014,9 hPa 0,0 l/m 0 min 0 min 316 W/m 14,6 km/h (3 Bft)
30.05.2015 14:42 9,3 C 10,6 C 91 % 15 lf 1014,8 hPa 0,0 l/m 2 min 0 min 414 W/m 12,6 km/h (3 Bft)
30.05.2015 14:44 9,5 C 10,6 C 91 % 15 lf 1014,9 hPa 0,0 l/m 2 min 0 min 540 W/m 12,6 km/h (3 Bft)
30.05.2015 14:46 9,7 C 11,1 C 91 % 15 lf 1014,9 hPa 0,0 l/m 2 min 0 min 540 W/m 12,6 km/h (3 Bft)
30.05.2015 14:48 9,9 C 11,1 C 92 % 15 lf 1014,9 hPa 0,0 l/m 2 min 0 min 869 W/m 18,8 km/h (3 Bft)
30.05.2015 14:50 10,2 C 11,7 C 92 % 15 lf 1014,8 hPa 0,0 l/m 2 min 0 min 914 W/m 18,8 km/h (3 Bft)
30.05.2015 14:52 10,4 C 11,7 C 92 % 15 lf 1014,8 hPa 0,0 l/m 2 min 0 min 863 W/m 14,6 km/h (3 Bft)
30.05.2015 14:54 10,8 C 11,7 C 92 % 15 lf 1014,9 hPa 0,0 l/m 2 min 0 min 895 W/m 18,8 km/h (3 Bft)
30.05.2015 14:56 11,1 C 11,7 C 92 % 15 lf 1014,9 hPa 0,0 l/m 2 min 0 min 892 W/m 16,7 km/h (3 Bft)
30.05.2015 14:58 11,3 C 11,7 C 93 % 15 lf 1014,8 hPa 0,0 l/m 2 min 0 min 844 W/m 23,0 km/h (4 Bft)
30.05.2015 15:00 11,7 C 12,2 C 93 % 15 lf 1014,9 hPa 0,0 l/m 2 min 0 min 809 W/m 16,7 km/h (3 Bft)
30.05.2015 15:02 11,9 C 12,2 C 92 % 15 lf 1014,9 hPa 0,0 l/m 2 min 0 min 811 W/m 20,9 km/h (4 Bft)
30.05.2015 15:04 12,2 C 12,2 C 91 % 15 lf 1014,9 hPa 0,0 l/m 2 min 0 min 826 W/m 23,0 km/h (4 Bft)
30.05.2015 15:06 12,4 C 12,2 C 90 % 15 lf 1014,9 hPa 0,0 l/m 2 min 0 min 843 W/m 18,8 km/h (3 Bft)
30.05.2015 15:08 12,7 C 12,2 C 89 % 15 lf 1014,9 hPa 0,0 l/m 2 min 0 min 844 W/m 29,3 km/h (5 Bft)
30.05.2015 15:10 12,9 C 12,2 C 86 % 15 lf 1014,9 hPa 0,0 l/m 2 min 0 min 670 W/m 14,6 km/h (3 Bft)
30.05.2015 15:12 13,0 C 12,2 C 84 % 14 lf 1015,0 hPa 0,0 l/m 0 min 0 min 320 W/m 20,9 km/h (4 Bft)
30.05.2015 15:14 13,1 C 12,2 C 82 % 10 lf 1015,0 hPa 0,0 l/m 0 min 0 min 343 W/m 23,0 km/h (4 Bft)
30.05.2015 15:16 13,1 C 12,2 C 78 % 4 lf 1015,0 hPa 0,0 l/m 0 min 0 min 307 W/m 27,2 km/h (4 Bft)
30.05.2015 15:18 13,2 C 11,7 C 77 % 2 lf 1015,1 hPa 0,0 l/m 0 min 0 min 232 W/m 23,0 km/h (4 Bft)
30.05.2015 15:20 13,2 C 11,7 C 77 % 2 lf 1015,2 hPa 0,0 l/m 0 min 0 min 167 W/m 33,5 km/h (5 Bft)
30.05.2015 15:22 13,2 C 11,7 C 77 % 1 lf 1015,3 hPa 0,0 l/m 0 min 0 min 115 W/m 25,1 km/h (4 Bft)
30.05.2015 15:24 13,1 C 11,1 C 76 % 1 lf 1015,3 hPa 0,0 l/m 0 min 0 min 97 W/m 23,0 km/h (4 Bft)
30.05.2015 15:26 13,0 C 11,1 C 76 % 1 lf 1015,2 hPa 0,0 l/m 0 min 0 min 91 W/m 18,8 km/h (3 Bft)
30.05.2015 15:28 12,9 C 11,1 C 76 % 1 lf 1015,3 hPa 0,0 l/m 0 min 0 min 90 W/m 12,6 km/h (3 Bft)
30.05.2015 15:30 12,9 C 11,1 C 77 % 1 lf 1015,3 hPa 0,0 l/m 0 min 0 min 89 W/m 14,6 km/h (3 Bft)
30.05.2015 15:32 12,8 C 11,1 C 77 % 2 lf 1015,2 hPa 0,0 l/m 0 min 0 min 94 W/m 14,6 km/h (3 Bft)
30.05.2015 15:34 12,8 C 11,1 C 77 % 1 lf 1015,3 hPa 0,0 l/m 0 min 0 min 115 W/m 20,9 km/h (4 Bft)
30.05.2015 15:36 12,7 C 11,1 C 76 % 1 lf 1015,2 hPa 0,0 l/m 0 min 0 min 160 W/m 16,7 km/h (3 Bft)
30.05.2015 15:38 12,6 C 11,1 C 77 % 1 lf 1015,2 hPa 0,0 l/m 0 min 0 min 196 W/m 10,5 km/h (2 Bft)
30.05.2015 15:40 12,6 C 11,7 C 77 % 1 lf 1015,3 hPa 0,0 l/m 0 min 0 min 213 W/m 16,7 km/h (3 Bft)
30.05.2015 15:42 12,6 C 11,7 C 77 % 1 lf 1015,3 hPa 0,0 l/m 0 min 0 min 205 W/m 14,6 km/h (3 Bft)
30.05.2015 15:44 12,6 C 11,7 C 78 % 1 lf 1015,4 hPa 0,0 l/m 0 min 0 min 181 W/m 12,6 km/h (3 Bft)
30.05.2015 15:46 12,6 C 11,1 C 78 % 0 lf 1015,4 hPa 0,0 l/m 0 min 0 min 148 W/m 20,9 km/h (4 Bft)
30.05.2015 15:48 12,6 C 11,1 C 78 % 2 lf 1015,4 hPa 0,0 l/m 0 min 0 min 123 W/m 14,6 km/h (3 Bft)
30.05.2015 15:50 12,6 C 11,1 C 78 % 4 lf 1015,6 hPa 0,0 l/m 0 min 2 min 94 W/m 16,7 km/h (3 Bft)
30.05.2015 15:52 12,6 C 11,1 C 79 % 13 lf 1015,8 hPa 0,0 l/m 0 min 2 min 56 W/m 18,8 km/h (3 Bft)
30.05.2015 15:54 12,4 C 10,6 C 79 % 15 lf 1016,1 hPa 0,0 l/m 0 min 2 min 37 W/m 46,0 km/h (6 Bft)
30.05.2015 15:56 12,2 C 10,0 C 78 % 15 lf 1016,1 hPa 0,2 l/m 0 min 2 min 44 W/m 33,5 km/h (5 Bft)
30.05.2015 15:58 12,0 C 10,0 C 78 % 15 lf 1015,9 hPa 0,0 l/m 0 min 2 min 51 W/m 33,5 km/h (5 Bft)
30.05.2015 16:00 11,8 C 9,4 C 78 % 15 lf 1015,8 hPa 0,2 l/m 0 min 2 min 67 W/m 23,0 km/h (4 Bft)
30.05.2015 16:02 11,6 C 9,4 C 79 % 15 lf 1015,7 hPa 0,0 l/m 0 min 2 min 100 W/m 23,0 km/h (4 Bft)
30.05.2015 16:04 11,5 C 9,4 C 79 % 15 lf 1015,6 hPa 0,0 l/m 0 min 2 min 121 W/m 12,6 km/h (3 Bft)
30.05.2015 16:06 11,4 C 10,0 C 80 % 15 lf 1015,7 hPa 0,0 l/m 0 min 2 min 146 W/m 14,6 km/h (3 Bft)
30.05.2015 16:08 11,3 C 10,0 C 80 % 15 lf 1015,7 hPa 0,0 l/m 0 min 2 min 188 W/m 12,6 km/h (3 Bft)
30.05.2015 16:10 11,2 C 10,0 C 80 % 15 lf 1015,7 hPa 0,0 l/m 0 min 0 min 203 W/m 12,6 km/h (3 Bft)
30.05.2015 16:12 11,2 C 10,0 C 81 % 15 lf 1015,6 hPa 0,0 l/m 0 min 0 min 213 W/m 14,6 km/h (3 Bft)
30.05.2015 16:14 11,1 C 10,0 C 81 % 15 lf 1015,6 hPa 0,0 l/m 0 min 0 min 224 W/m 10,5 km/h (2 Bft)
30.05.2015 16:16 11,1 C 10,6 C 82 % 15 lf 1015,6 hPa 0,0 l/m 0 min 0 min 197 W/m 8,4 km/h (2 Bft)
30.05.2015 16:18 11,0 C 10,6 C 82 % 15 lf 1015,6 hPa 0,0 l/m 0 min 0 min 165 W/m 12,6 km/h (3 Bft)
30.05.2015 16:20 11,0 C 10,6 C 83 % 15 lf 1015,6 hPa 0,0 l/m 0 min 0 min 143 W/m 6,3 km/h (2 Bft)
30.05.2015 16:22 11,0 C 10,6 C 83 % 15 lf 1015,6 hPa 0,0 l/m 0 min 0 min 143 W/m 16,7 km/h (3 Bft)
30.05.2015 16:24 11,0 C 10,6 C 83 % 15 lf 1015,6 hPa 0,0 l/m 0 min 0 min 153 W/m 12,6 km/h (3 Bft)
30.05.2015 16:26 10,9 C 10,6 C 83 % 15 lf 1015,5 hPa 0,0 l/m 0 min 0 min 176 W/m 8,4 km/h (2 Bft)
30.05.2015 16:28 10,9 C 10,6 C 83 % 15 lf 1015,6 hPa 0,0 l/m 0 min 0 min 214 W/m 6,3 km/h (2 Bft)
30.05.2015 16:30 10,9 C 10,6 C 84 % 15 lf 1015,6 hPa 0,0 l/m 0 min 0 min 255 W/m 6,3 km/h (2 Bft)
30.05.2015 16:32 10,9 C 11,1 C 84 % 15 lf 1015,6 hPa 0,0 l/m 0 min 0 min 278 W/m 8,4 km/h (2 Bft)
30.05.2015 16:34 11,0 C 11,1 C 85 % 15 lf 1015,6 hPa 0,0 l/m 0 min 0 min 295 W/m 10,5 km/h (2 Bft)
30.05.2015 16:36 11,1 C 11,1 C 85 % 15 lf 1015,6 hPa 0,0 l/m 0 min 0 min 308 W/m 6,3 km/h (2 Bft)
30.05.2015 16:38 11,1 C 11,1 C 85 % 15 lf 1015,6 hPa 0,0 l/m 0 min 0 min 329 W/m 6,3 km/h (2 Bft)
30.05.2015 16:40 11,2 C 11,7 C 86 % 15 lf 1015,6 hPa 0,0 l/m 2 min 0 min 429 W/m 8,4 km/h (2 Bft)
30.05.2015 16:42 11,3 C 11,7 C 86 % 15 lf 1015,6 hPa 0,0 l/m 2 min 0 min 529 W/m 2,1 km/h (1 Bft)
30.05.2015 16:44 11,5 C 11,7 C 87 % 13 lf 1015,6 hPa 0,0 l/m 2 min 0 min 669 W/m 10,5 km/h (2 Bft)
30.05.2015 16:46 11,6 C 11,7 C 86 % 15 lf 1015,6 hPa 0,0 l/m 2 min 0 min 612 W/m 8,4 km/h (2 Bft)
30.05.2015 16:48 11,8 C 11,7 C 87 % 15 lf 1015,7 hPa 0,0 l/m 2 min 0 min 711 W/m 8,4 km/h (2 Bft)
30.05.2015 16:50 12,1 C 11,7 C 87 % 15 lf 1015,6 hPa 0,0 l/m 2 min 0 min 647 W/m 10,5 km/h (2 Bft)
30.05.2015 16:52 12,2 C 11,7 C 87 % 15 lf 1015,6 hPa 0,0 l/m 2 min 0 min 626 W/m 14,6 km/h (3 Bft)
30.05.2015 16:54 12,3 C 11,7 C 86 % 15 lf 1015,7 hPa 0,0 l/m 2 min 0 min 660 W/m 12,6 km/h (3 Bft)
30.05.2015 16:56 12,5 C 11,7 C 86 % 12 lf 1015,7 hPa 0,0 l/m 2 min 0 min 622 W/m 14,6 km/h (3 Bft)
30.05.2015 16:58 12,6 C 11,7 C 85 % 0 lf 1015,7 hPa 0,0 l/m 2 min 0 min 676 W/m 16,7 km/h (3 Bft)
30.05.2015 17:00 12,7 C 11,7 C 84 % 0 lf 1015,7 hPa 0,0 l/m 2 min 0 min 661 W/m 14,6 km/h (3 Bft)
30.05.2015 17:02 12,8 C 11,7 C 83 % 0 lf 1015,6 hPa 0,0 l/m 2 min 0 min 650 W/m 16,7 km/h (3 Bft)
30.05.2015 17:04 12,9 C 11,7 C 82 % 0 lf 1015,7 hPa 0,0 l/m 2 min 0 min 629 W/m 18,8 km/h (3 Bft)
30.05.2015 17:06 13,0 C 11,7 C 81 % 0 lf 1015,7 hPa 0,0 l/m 2 min 0 min 548 W/m 12,6 km/h (3 Bft)
30.05.2015 17:08 13,2 C 11,7 C 80 % 0 lf 1015,6 hPa 0,0 l/m 0 min 0 min 279 W/m 10,5 km/h (2 Bft)
30.05.2015 17:10 13,2 C 11,7 C 80 % 0 lf 1015,6 hPa 0,0 l/m 0 min 0 min 165 W/m 14,6 km/h (3 Bft)
30.05.2015 17:12 13,2 C 11,7 C 79 % 0 lf 1015,7 hPa 0,0 l/m 0 min 0 min 207 W/m 14,6 km/h (3 Bft)
30.05.2015 17:14 13,2 C 11,7 C 78 % 0 lf 1015,6 hPa 0,0 l/m 0 min 0 min 221 W/m 10,5 km/h (2 Bft)
30.05.2015 17:16 13,3 C 11,7 C 78 % 0 lf 1015,7 hPa 0,0 l/m 0 min 0 min 257 W/m 10,5 km/h (2 Bft)
30.05.2015 17:18 13,3 C 11,7 C 78 % 0 lf 1015,7 hPa 0,0 l/m 0 min 0 min 294 W/m 14,6 km/h (3 Bft)
30.05.2015 17:20 13,3 C 11,7 C 77 % 0 lf 1015,6 hPa 0,0 l/m 0 min 0 min 271 W/m 14,6 km/h (3 Bft)
30.05.2015 17:22 13,3 C 11,7 C 77 % 0 lf 1015,6 hPa 0,0 l/m 2 min 0 min 443 W/m 14,6 km/h (3 Bft)
30.05.2015 17:24 13,3 C 11,7 C 77 % 0 lf 1015,6 hPa 0,0 l/m 0 min 0 min 245 W/m 10,5 km/h (2 Bft)
30.05.2015 17:26 13,3 C 11,7 C 77 % 15 lf 1015,6 hPa 0,0 l/m 0 min 0 min 228 W/m 12,6 km/h (3 Bft)
30.05.2015 17:28 13,4 C 11,7 C 78 % 15 lf 1015,7 hPa 0,0 l/m 0 min 0 min 183 W/m 8,4 km/h (2 Bft)
30.05.2015 17:30 13,4 C 11,7 C 78 % 15 lf 1015,7 hPa 0,0 l/m 0 min 0 min 149 W/m 8,4 km/h (2 Bft)
30.05.2015 17:32 13,4 C 11,7 C 78 % 15 lf 1015,7 hPa 0,0 l/m 0 min 0 min 147 W/m 8,4 km/h (2 Bft)
30.05.2015 17:34 13,4 C 11,7 C 78 % 15 lf 1015,7 hPa 0,0 l/m 0 min 0 min 183 W/m 12,6 km/h (3 Bft)
30.05.2015 17:36 13,4 C 11,7 C 78 % 15 lf 1015,8 hPa 0,0 l/m 0 min 0 min 235 W/m 10,5 km/h (2 Bft)
30.05.2015 17:38 13,4 C 11,7 C 78 % 15 lf 1015,7 hPa 0,0 l/m 2 min 0 min 416 W/m 8,4 km/h (2 Bft)
30.05.2015 17:40 13,5 C 11,7 C 79 % 15 lf 1015,6 hPa 0,0 l/m 2 min 0 min 525 W/m 12,6 km/h (3 Bft)
30.05.2015 17:42 13,5 C 11,7 C 79 % 13 lf 1015,6 hPa 0,0 l/m 2 min 0 min 290 W/m 10,5 km/h (2 Bft)
30.05.2015 17:44 13,5 C 11,7 C 79 % 3 lf 1015,6 hPa 0,0 l/m 0 min 0 min 264 W/m 14,6 km/h (3 Bft)
30.05.2015 17:46 13,6 C 11,7 C 77 % 0 lf 1015,7 hPa 0,0 l/m 2 min 0 min 342 W/m 14,6 km/h (3 Bft)
30.05.2015 17:48 13,6 C 11,7 C 78 % 0 lf 1015,6 hPa 0,0 l/m 2 min 0 min 618 W/m 14,6 km/h (3 Bft)
30.05.2015 17:50 13,7 C 11,7 C 78 % 0 lf 1015,6 hPa 0,0 l/m 2 min 0 min 604 W/m 25,1 km/h (4 Bft)
30.05.2015 17:52 13,7 C 11,7 C 77 % 0 lf 1015,6 hPa 0,0 l/m 2 min 0 min 592 W/m 18,8 km/h (3 Bft)
30.05.2015 17:54 13,7 C 11,7 C 75 % 0 lf 1015,6 hPa 0,0 l/m 0 min 0 min 250 W/m 18,8 km/h (3 Bft)
30.05.2015 17:56 13,7 C 11,7 C 74 % 0 lf 1015,7 hPa 0,0 l/m 0 min 0 min 208 W/m 18,8 km/h (3 Bft)
30.05.2015 17:58 13,7 C 11,7 C 73 % 0 lf 1015,7 hPa 0,0 l/m 0 min 0 min 191 W/m 18,8 km/h (3 Bft)
30.05.2015 18:00 13,6 C 11,7 C 73 % 0 lf 1015,6 hPa 0,0 l/m 0 min 0 min 197 W/m 16,7 km/h (3 Bft)
30.05.2015 18:02 13,6 C 11,7 C 73 % 0 lf 1015,6 hPa 0,0 l/m 0 min 0 min 193 W/m 14,6 km/h (3 Bft)
30.05.2015 18:06 13,6 C 11,7 C 73 % 0 lf 1015,8 hPa 0,0 l/m 0 min 0 min 211 W/m 16,7 km/h (3 Bft)
30.05.2015 18:08 13,6 C 11,7 C 73 % 0 lf 1015,8 hPa 0,0 l/m 0 min 0 min 183 W/m 16,7 km/h (3 Bft)
30.05.2015 18:10 13,6 C 11,7 C 73 % 0 lf 1015,7 hPa 0,0 l/m 0 min 0 min 162 W/m 16,7 km/h (3 Bft)
30.05.2015 18:12 13,6 C 11,7 C 74 % 0 lf 1015,7 hPa 0,0 l/m 0 min 0 min 157 W/m 12,6 km/h (3 Bft)
30.05.2015 18:14 13,6 C 11,7 C 74 % 0 lf 1015,8 hPa 0,0 l/m 0 min 0 min 157 W/m 10,5 km/h (2 Bft)
30.05.2015 18:16 13,5 C 11,7 C 74 % 0 lf 1015,8 hPa 0,0 l/m 0 min 0 min 145 W/m 10,5 km/h (2 Bft)
30.05.2015 18:18 13,6 C 11,7 C 75 % 0 lf 1015,7 hPa 0,0 l/m 0 min 0 min 137 W/m 16,7 km/h (3 Bft)
30.05.2015 18:20 13,5 C 11,7 C 74 % 0 lf 1015,7 hPa 0,0 l/m 0 min 0 min 135 W/m 10,5 km/h (2 Bft)
30.05.2015 18:22 13,4 C 11,7 C 74 % 0 lf 1015,7 hPa 0,0 l/m 0 min 0 min 138 W/m 16,7 km/h (3 Bft)
30.05.2015 18:24 13,4 C 11,7 C 74 % 0 lf 1015,8 hPa 0,0 l/m 0 min 0 min 142 W/m 10,5 km/h (2 Bft)
30.05.2015 18:26 13,4 C 11,7 C 75 % 0 lf 1015,8 hPa 0,0 l/m 0 min 2 min 161 W/m 14,6 km/h (3 Bft)
30.05.2015 18:28 13,4 C 11,7 C 75 % 0 lf 1015,8 hPa 0,0 l/m 0 min 0 min 210 W/m 18,8 km/h (3 Bft)
30.05.2015 18:30 13,4 C 11,7 C 75 % 0 lf 1015,8 hPa 0,0 l/m 2 min 0 min 261 W/m 14,6 km/h (3 Bft)
30.05.2015 18:32 13,4 C 11,7 C 75 % 0 lf 1015,8 hPa 0,0 l/m 2 min 0 min 285 W/m 18,8 km/h (3 Bft)
30.05.2015 18:34 13,4 C 11,7 C 75 % 0 lf 1015,8 hPa 0,0 l/m 2 min 0 min 289 W/m 18,8 km/h (3 Bft)
30.05.2015 18:36 13,4 C 11,7 C 75 % 0 lf 1015,8 hPa 0,0 l/m 2 min 0 min 363 W/m 12,6 km/h (3 Bft)
30.05.2015 18:38 13,5 C 11,7 C 75 % 0 lf 1015,8 hPa 0,0 l/m 2 min 0 min 467 W/m 12,6 km/h (3 Bft)
30.05.2015 18:40 13,6 C 11,7 C 75 % 0 lf 1015,8 hPa 0,0 l/m 2 min 0 min 408 W/m 18,8 km/h (3 Bft)
30.05.2015 18:42 13,6 C 11,7 C 75 % 0 lf 1015,8 hPa 0,0 l/m 2 min 0 min 399 W/m 16,7 km/h (3 Bft)
30.05.2015 18:44 13,6 C 11,7 C 75 % 0 lf 1015,8 hPa 0,0 l/m 2 min 0 min 369 W/m 16,7 km/h (3 Bft)
30.05.2015 18:46 13,6 C 11,7 C 75 % 0 lf 1015,8 hPa 0,0 l/m 2 min 0 min 312 W/m 23,0 km/h (4 Bft)
30.05.2015 18:48 13,6 C 11,7 C 74 % 0 lf 1015,8 hPa 0,0 l/m 0 min 0 min 126 W/m 23,0 km/h (4 Bft)
30.05.2015 18:50 13,6 C 11,7 C 73 % 0 lf 1015,8 hPa 0,0 l/m 2 min 0 min 268 W/m 20,9 km/h (4 Bft)
30.05.2015 18:52 13,6 C 11,7 C 73 % 0 lf 1015,9 hPa 0,0 l/m 2 min 0 min 358 W/m 20,9 km/h (4 Bft)
30.05.2015 18:54 13,6 C 11,7 C 72 % 0 lf 1015,9 hPa 0,0 l/m 2 min 0 min 331 W/m 18,8 km/h (3 Bft)
30.05.2015 18:56 13,6 C 11,7 C 72 % 0 lf 1016,0 hPa 0,0 l/m 2 min 0 min 370 W/m 14,6 km/h (3 Bft)
30.05.2015 18:58 13,7 C 11,7 C 72 % 0 lf 1015,9 hPa 0,0 l/m 2 min 0 min 335 W/m 14,6 km/h (3 Bft)
30.05.2015 19:00 13,7 C 11,7 C 72 % 0 lf 1015,9 hPa 0,0 l/m 2 min 0 min 348 W/m 18,8 km/h (3 Bft)
30.05.2015 19:02 13,8 C 11,7 C 72 % 0 lf 1015,9 hPa 0,0 l/m 2 min 0 min 381 W/m 16,7 km/h (3 Bft)
30.05.2015 19:04 13,8 C 11,7 C 72 % 0 lf 1015,9 hPa 0,0 l/m 2 min 0 min 347 W/m 23,0 km/h (4 Bft)
30.05.2015 19:06 13,8 C 11,7 C 72 % 0 lf 1016,0 hPa 0,0 l/m 2 min 0 min 344 W/m 25,1 km/h (4 Bft)
30.05.2015 19:08 13,8 C 11,7 C 72 % 0 lf 1016,0 hPa 0,0 l/m 2 min 0 min 308 W/m 18,8 km/h (3 Bft)
30.05.2015 19:10 13,8 C 11,7 C 71 % 0 lf 1016,0 hPa 0,0 l/m 2 min 0 min 312 W/m 16,7 km/h (3 Bft)
30.05.2015 19:12 13,8 C 11,7 C 71 % 0 lf 1015,9 hPa 0,0 l/m 2 min 0 min 293 W/m 25,1 km/h (4 Bft)
30.05.2015 19:14 13,8 C 11,1 C 71 % 0 lf 1016,0 hPa 0,0 l/m 2 min 0 min 255 W/m 18,8 km/h (3 Bft)
30.05.2015 19:16 13,8 C 11,1 C 71 % 0 lf 1016,0 hPa 0,0 l/m 2 min 0 min 281 W/m 10,5 km/h (2 Bft)
30.05.2015 19:18 13,8 C 11,1 C 72 % 0 lf 1016,0 hPa 0,0 l/m 2 min 0 min 285 W/m 14,6 km/h (3 Bft)
30.05.2015 19:20 13,8 C 11,1 C 72 % 0 lf 1015,9 hPa 0,0 l/m 2 min 0 min 254 W/m 12,6 km/h (3 Bft)
30.05.2015 19:22 13,8 C 11,1 C 73 % 0 lf 1015,9 hPa 0,0 l/m 2 min 0 min 246 W/m 8,4 km/h (2 Bft)
30.05.2015 19:24 13,8 C 11,1 C 73 % 0 lf 1015,9 hPa 0,0 l/m 2 min 0 min 257 W/m 16,7 km/h (3 Bft)
30.05.2015 19:26 13,8 C 11,1 C 73 % 0 lf 1015,9 hPa 0,0 l/m 2 min 0 min 253 W/m 14,6 km/h (3 Bft)
30.05.2015 19:28 13,8 C 11,1 C 72 % 0 lf 1015,9 hPa 0,0 l/m 2 min 0 min 209 W/m 16,7 km/h (3 Bft)
30.05.2015 19:30 13,8 C 11,1 C 72 % 0 lf 1015,9 hPa 0,0 l/m 2 min 0 min 173 W/m 14,6 km/h (3 Bft)
30.05.2015 19:32 13,8 C 11,1 C 72 % 0 lf 1015,9 hPa 0,0 l/m 2 min 0 min 148 W/m 16,7 km/h (3 Bft)
30.05.2015 19:34 13,7 C 11,1 C 72 % 0 lf 1015,9 hPa 0,0 l/m 2 min 0 min 165 W/m 16,7 km/h (3 Bft)
30.05.2015 19:36 13,7 C 11,1 C 72 % 0 lf 1015,9 hPa 0,0 l/m 2 min 0 min 208 W/m 10,5 km/h (2 Bft)
30.05.2015 19:38 13,7 C 11,1 C 72 % 0 lf 1015,9 hPa 0,0 l/m 2 min 0 min 200 W/m 14,6 km/h (3 Bft)
30.05.2015 19:40 13,7 C 11,1 C 72 % 0 lf 1015,9 hPa 0,0 l/m 2 min 0 min 183 W/m 12,6 km/h (3 Bft)
30.05.2015 19:42 13,7 C 11,1 C 72 % 0 lf 1015,9 hPa 0,0 l/m 2 min 0 min 131 W/m 14,6 km/h (3 Bft)
30.05.2015 19:44 13,6 C 11,1 C 73 % 0 lf 1015,9 hPa 0,0 l/m 2 min 0 min 140 W/m 12,6 km/h (3 Bft)
30.05.2015 19:46 13,6 C 11,1 C 72 % 0 lf 1015,9 hPa 0,0 l/m 2 min 0 min 164 W/m 16,7 km/h (3 Bft)
30.05.2015 19:48 13,6 C 11,1 C 72 % 0 lf 1015,9 hPa 0,0 l/m 2 min 0 min 168 W/m 8,4 km/h (2 Bft)
30.05.2015 19:50 13,6 C 11,1 C 72 % 0 lf 1015,9 hPa 0,0 l/m 2 min 0 min 166 W/m 8,4 km/h (2 Bft)
30.05.2015 19:52 13,6 C 11,1 C 73 % 0 lf 1015,9 hPa 0,0 l/m 2 min 0 min 159 W/m 12,6 km/h (3 Bft)
30.05.2015 19:54 13,6 C 11,1 C 73 % 0 lf 1015,9 hPa 0,0 l/m 2 min 0 min 126 W/m 14,6 km/h (3 Bft)
30.05.2015 19:56 13,5 C 11,1 C 72 % 0 lf 1016,0 hPa 0,0 l/m 2 min 0 min 152 W/m 10,5 km/h (2 Bft)
30.05.2015 19:58 13,5 C 11,1 C 72 % 0 lf 1015,9 hPa 0,0 l/m 2 min 0 min 163 W/m 10,5 km/h (2 Bft)
30.05.2015 20:00 13,5 C 11,1 C 73 % 0 lf 1016,0 hPa 0,0 l/m 2 min 0 min 164 W/m 6,3 km/h (2 Bft)
30.05.2015 20:02 13,5 C 11,1 C 73 % 0 lf 1016,0 hPa 0,0 l/m 2 min 0 min 156 W/m 10,5 km/h (2 Bft)
30.05.2015 20:04 13,5 C 11,1 C 73 % 0 lf 1016,1 hPa 0,0 l/m 2 min 0 min 163 W/m 6,3 km/h (2 Bft)
30.05.2015 20:06 13,5 C 11,1 C 73 % 0 lf 1016,1 hPa 0,0 l/m 2 min 0 min 160 W/m 8,4 km/h (2 Bft)
30.05.2015 20:08 13,5 C 11,1 C 72 % 0 lf 1016,0 hPa 0,0 l/m 2 min 0 min 117 W/m 12,6 km/h (3 Bft)
30.05.2015 20:10 13,5 C 11,1 C 72 % 0 lf 1016,0 hPa 0,0 l/m 2 min 0 min 100 W/m 10,5 km/h (2 Bft)
30.05.2015 20:12 13,4 C 11,1 C 72 % 0 lf 1016,0 hPa 0,0 l/m 0 min 0 min 64 W/m 8,4 km/h (2 Bft)
30.05.2015 20:14 13,4 C 11,1 C 72 % 0 lf 1016,1 hPa 0,0 l/m 0 min 0 min 50 W/m 6,3 km/h (2 Bft)
30.05.2015 20:16 13,4 C 11,1 C 72 % 0 lf 1015,9 hPa 0,0 l/m 0 min 0 min 42 W/m 6,3 km/h (2 Bft)
30.05.2015 20:18 13,4 C 11,1 C 72 % 0 lf 1015,9 hPa 0,0 l/m 0 min 0 min 37 W/m 10,5 km/h (2 Bft)
30.05.2015 20:20 13,4 C 11,1 C 72 % 0 lf 1015,9 hPa 0,0 l/m 0 min 0 min 34 W/m 8,4 km/h (2 Bft)
30.05.2015 20:22 13,4 C 10,6 C 72 % 0 lf 1015,9 hPa 0,0 l/m 0 min 0 min 33 W/m 6,3 km/h (2 Bft)
30.05.2015 20:24 13,4 C 10,6 C 72 % 0 lf 1015,9 hPa 0,0 l/m 0 min 0 min 34 W/m 6,3 km/h (2 Bft)
30.05.2015 20:26 13,4 C 10,6 C 72 % 0 lf 1015,9 hPa 0,0 l/m 0 min 0 min 35 W/m 6,3 km/h (2 Bft)
30.05.2015 20:28 13,4 C 10,6 C 72 % 0 lf 1016,0 hPa 0,0 l/m 0 min 0 min 37 W/m 6,3 km/h (2 Bft)
30.05.2015 20:30 13,3 C 10,6 C 72 % 0 lf 1016,0 hPa 0,0 l/m 0 min 0 min 37 W/m 8,4 km/h (2 Bft)
30.05.2015 20:32 13,3 C 10,6 C 72 % 0 lf 1016,0 hPa 0,0 l/m 0 min 0 min 39 W/m 8,4 km/h (2 Bft)
30.05.2015 20:34 13,3 C 10,6 C 72 % 0 lf 1016,1 hPa 0,0 l/m 0 min 0 min 40 W/m 8,4 km/h (2 Bft)
30.05.2015 20:36 13,3 C 10,6 C 72 % 0 lf 1016,1 hPa 0,0 l/m 0 min 0 min 40 W/m 6,3 km/h (2 Bft)
30.05.2015 20:38 13,2 C 10,6 C 72 % 0 lf 1016,1 hPa 0,0 l/m 0 min 0 min 39 W/m 8,4 km/h (2 Bft)
30.05.2015 20:40 13,2 C 10,6 C 72 % 0 lf 1016,0 hPa 0,0 l/m 0 min 0 min 40 W/m 6,3 km/h (2 Bft)
30.05.2015 20:42 13,2 C 10,6 C 72 % 0 lf 1016,1 hPa 0,0 l/m 0 min 0 min 39 W/m 6,3 km/h (2 Bft)
30.05.2015 20:44 13,1 C 10,6 C 73 % 0 lf 1016,1 hPa 0,0 l/m 0 min 0 min 38 W/m 6,3 km/h (2 Bft)
30.05.2015 20:46 13,1 C 10,6 C 73 % 0 lf 1016,1 hPa 0,0 l/m 0 min 0 min 42 W/m 6,3 km/h (2 Bft)
30.05.2015 20:48 13,1 C 10,6 C 73 % 0 lf 1016,1 hPa 0,0 l/m 0 min 0 min 40 W/m 8,4 km/h (2 Bft)
30.05.2015 20:50 13,0 C 10,6 C 73 % 0 lf 1016,1 hPa 0,0 l/m 0 min 0 min 42 W/m 6,3 km/h (2 Bft)
30.05.2015 20:52 13,0 C 10,6 C 73 % 0 lf 1016,1 hPa 0,0 l/m 2 min 0 min 44 W/m 6,3 km/h (2 Bft)
30.05.2015 20:54 12,9 C 10,6 C 73 % 0 lf 1016,0 hPa 0,0 l/m 2 min 0 min 42 W/m 8,4 km/h (2 Bft)
30.05.2015 20:56 12,9 C 10,6 C 73 % 0 lf 1016,1 hPa 0,0 l/m 2 min 0 min 40 W/m 4,2 km/h (1 Bft)
30.05.2015 20:58 12,9 C 10,6 C 73 % 0 lf 1016,0 hPa 0,0 l/m 0 min 0 min 34 W/m 6,3 km/h (2 Bft)
30.05.2015 21:00 12,9 C 10,6 C 73 % 0 lf 1016,0 hPa 0,0 l/m 0 min 0 min 32 W/m 6,3 km/h (2 Bft)
30.05.2015 21:02 12,8 C 10,6 C 73 % 0 lf 1016,0 hPa 0,0 l/m 0 min 0 min 29 W/m 6,3 km/h (2 Bft)
30.05.2015 21:04 12,8 C 10,6 C 74 % 0 lf 1016,0 hPa 0,0 l/m 0 min 0 min 27 W/m 6,3 km/h (2 Bft)
30.05.2015 21:06 12,8 C 10,6 C 74 % 0 lf 1016,0 hPa 0,0 l/m 0 min 0 min 24 W/m 4,2 km/h (1 Bft)
30.05.2015 21:08 12,8 C 10,6 C 74 % 0 lf 1016,1 hPa 0,0 l/m 0 min 0 min 22 W/m 4,2 km/h (1 Bft)
30.05.2015 21:10 12,7 C 10,0 C 74 % 0 lf 1016,0 hPa 0,0 l/m 0 min 0 min 21 W/m 4,2 km/h (1 Bft)
30.05.2015 21:12 12,7 C 10,0 C 74 % 0 lf 1016,0 hPa 0,0 l/m 0 min 0 min 20 W/m 4,2 km/h (1 Bft)
30.05.2015 21:14 12,7 C 10,0 C 75 % 0 lf 1016,0 hPa 0,0 l/m 2 min 0 min 19 W/m 6,3 km/h (2 Bft)
30.05.2015 21:16 12,7 C 10,0 C 75 % 0 lf 1016,0 hPa 0,0 l/m 2 min 0 min 19 W/m 6,3 km/h (2 Bft)
30.05.2015 21:18 12,6 C 10,0 C 75 % 0 lf 1016,1 hPa 0,0 l/m 2 min 0 min 19 W/m 6,3 km/h (2 Bft)
30.05.2015 21:20 12,6 C 10,0 C 75 % 0 lf 1016,0 hPa 0,0 l/m 0 min 0 min 18 W/m 8,4 km/h (2 Bft)
30.05.2015 21:22 12,6 C 10,0 C 75 % 0 lf 1016,0 hPa 0,0 l/m 0 min 0 min 17 W/m 6,3 km/h (2 Bft)
30.05.2015 21:24 12,5 C 10,0 C 75 % 0 lf 1016,0 hPa 0,0 l/m 0 min 0 min 15 W/m 6,3 km/h (2 Bft)
30.05.2015 21:26 12,4 C 10,0 C 75 % 0 lf 1016,0 hPa 0,0 l/m 0 min 0 min 14 W/m 6,3 km/h (2 Bft)
30.05.2015 21:28 12,4 C 10,0 C 75 % 0 lf 1016,0 hPa 0,0 l/m 0 min 0 min 12 W/m 4,2 km/h (1 Bft)
30.05.2015 21:30 12,4 C 10,0 C 76 % 0 lf 1015,9 hPa 0,0 l/m 0 min 0 min 12 W/m 6,3 km/h (2 Bft)
30.05.2015 21:32 12,4 C 10,0 C 75 % 0 lf 1016,1 hPa 0,0 l/m 0 min 0 min 11 W/m 6,3 km/h (2 Bft)
30.05.2015 21:34 12,3 C 10,0 C 75 % 0 lf 1016,0 hPa 0,0 l/m 0 min 0 min 9 W/m 4,2 km/h (1 Bft)
30.05.2015 21:36 12,3 C 9,4 C 76 % 0 lf 1016,0 hPa 0,0 l/m 0 min 0 min 8 W/m 6,3 km/h (2 Bft)
30.05.2015 21:38 12,2 C 9,4 C 76 % 0 lf 1016,1 hPa 0,0 l/m 0 min 0 min 7 W/m 4,2 km/h (1 Bft)
30.05.2015 21:40 12,2 C 9,4 C 76 % 0 lf 1016,0 hPa 0,0 l/m 0 min 0 min 7 W/m 6,3 km/h (2 Bft)
30.05.2015 21:42 12,2 C 9,4 C 77 % 0 lf 1016,1 hPa 0,0 l/m 0 min 0 min 5 W/m 6,3 km/h (2 Bft)
30.05.2015 21:44 12,1 C 9,4 C 77 % 0 lf 1016,0 hPa 0,0 l/m 0 min 0 min 5 W/m 6,3 km/h (2 Bft)
30.05.2015 21:46 12,1 C 9,4 C 76 % 0 lf 1016,0 hPa 0,0 l/m 0 min 0 min 5 W/m 4,2 km/h (1 Bft)
30.05.2015 21:48 12,0 C 9,4 C 77 % 0 lf 1016,0 hPa 0,0 l/m 0 min 0 min 5 W/m 6,3 km/h (2 Bft)
30.05.2015 21:50 11,9 C 9,4 C 77 % 0 lf 1016,0 hPa 0,0 l/m 0 min 0 min 5 W/m 6,3 km/h (2 Bft)
30.05.2015 21:52 11,9 C 9,4 C 77 % 0 lf 1016,0 hPa 0,0 l/m 0 min 0 min 4 W/m 4,2 km/h (1 Bft)
30.05.2015 21:54 11,9 C 9,4 C 77 % 0 lf 1016,1 hPa 0,0 l/m 0 min 0 min 0 W/m 4,2 km/h (1 Bft)
30.05.2015 21:56 11,8 C 9,4 C 78 % 0 lf 1016,0 hPa 0,0 l/m 0 min 0 min 0 W/m 4,2 km/h (1 Bft)
30.05.2015 21:58 11,8 C 9,4 C 78 % 0 lf 1016,1 hPa 0,0 l/m 0 min 0 min 0 W/m 6,3 km/h (2 Bft)
30.05.2015 22:00 11,8 C 9,4 C 77 % 0 lf 1016,1 hPa 0,0 l/m 0 min 0 min 0 W/m 6,3 km/h (2 Bft)
30.05.2015 22:02 11,7 C 9,4 C 78 % 0 lf 1016,1 hPa 0,0 l/m 0 min 0 min 0 W/m 6,3 km/h (2 Bft)
30.05.2015 22:04 11,7 C 9,4 C 78 % 0 lf 1016,1 hPa 0,0 l/m 0 min 0 min 0 W/m 8,4 km/h (2 Bft)
30.05.2015 22:06 11,6 C 9,4 C 79 % 0 lf 1016,2 hPa 0,0 l/m 0 min 0 min 0 W/m 6,3 km/h (2 Bft)
30.05.2015 22:08 11,6 C 8,9 C 79 % 0 lf 1016,2 hPa 0,0 l/m 0 min 0 min 0 W/m 6,3 km/h (2 Bft)
30.05.2015 22:10 11,5 C 8,9 C 79 % 0 lf 1016,2 hPa 0,0 l/m 0 min 0 min 0 W/m 8,4 km/h (2 Bft)
30.05.2015 22:12 11,4 C 8,9 C 79 % 0 lf 1016,2 hPa 0,0 l/m 0 min 0 min 0 W/m 8,4 km/h (2 Bft)
30.05.2015 22:14 11,4 C 8,9 C 79 % 0 lf 1016,2 hPa 0,0 l/m 0 min 0 min 0 W/m 6,3 km/h (2 Bft)
30.05.2015 22:16 11,3 C 8,9 C 80 % 0 lf 1016,2 hPa 0,0 l/m 0 min 0 min 0 W/m 4,2 km/h (1 Bft)
30.05.2015 22:18 11,3 C 8,9 C 80 % 0 lf 1016,2 hPa 0,0 l/m 0 min 0 min 0 W/m 6,3 km/h (2 Bft)
30.05.2015 22:20 11,2 C 8,9 C 80 % 0 lf 1016,3 hPa 0,0 l/m 0 min 0 min 0 W/m 6,3 km/h (2 Bft)
30.05.2015 22:22 11,2 C 8,9 C 80 % 0 lf 1016,3 hPa 0,0 l/m 0 min 0 min 0 W/m 2,1 km/h (1 Bft)
30.05.2015 22:24 11,1 C 8,9 C 81 % 0 lf 1016,3 hPa 0,0 l/m 0 min 0 min 0 W/m 4,2 km/h (1 Bft)
30.05.2015 22:26 11,1 C 8,9 C 81 % 0 lf 1016,3 hPa 0,0 l/m 0 min 0 min 0 W/m 4,2 km/h (1 Bft)
30.05.2015 22:28 11,0 C 8,9 C 82 % 0 lf 1016,3 hPa 0,0 l/m 0 min 0 min 0 W/m 4,2 km/h (1 Bft)
30.05.2015 22:30 10,9 C 8,9 C 82 % 0 lf 1016,3 hPa 0,0 l/m 0 min 0 min 0 W/m 4,2 km/h (1 Bft)
30.05.2015 22:32 10,8 C 8,9 C 82 % 0 lf 1016,2 hPa 0,0 l/m 0 min 0 min 0 W/m 4,2 km/h (1 Bft)
30.05.2015 22:34 10,8 C 8,9 C 82 % 0 lf 1016,3 hPa 0,0 l/m 0 min 0 min 0 W/m 6,3 km/h (2 Bft)
30.05.2015 22:36 10,7 C 8,9 C 83 % 0 lf 1016,2 hPa 0,0 l/m 0 min 0 min 0 W/m 6,3 km/h (2 Bft)
30.05.2015 22:38 10,7 C 8,9 C 83 % 0 lf 1016,3 hPa 0,0 l/m 0 min 0 min 0 W/m 6,3 km/h (2 Bft)
30.05.2015 22:40 10,6 C 8,9 C 83 % 0 lf 1016,2 hPa 0,0 l/m 0 min 0 min 0 W/m 8,4 km/h (2 Bft)
30.05.2015 22:42 10,6 C 9,4 C 83 % 0 lf 1016,3 hPa 0,0 l/m 0 min 0 min 0 W/m 6,3 km/h (2 Bft)
30.05.2015 22:44 10,5 C 9,4 C 83 % 0 lf 1016,3 hPa 0,0 l/m 0 min 0 min 0 W/m 8,4 km/h (2 Bft)
30.05.2015 22:46 10,4 C 9,4 C 84 % 0 lf 1016,2 hPa 0,0 l/m 0 min 0 min 0 W/m 12,6 km/h (3 Bft)
30.05.2015 22:48 10,4 C 9,4 C 84 % 0 lf 1016,2 hPa 0,0 l/m 0 min 0 min 0 W/m 10,5 km/h (2 Bft)
30.05.2015 22:50 10,4 C 9,4 C 84 % 0 lf 1016,2 hPa 0,0 l/m 0 min 0 min 0 W/m 8,4 km/h (2 Bft)
30.05.2015 22:52 10,4 C 9,4 C 84 % 0 lf 1016,2 hPa 0,0 l/m 0 min 0 min 0 W/m 8,4 km/h (2 Bft)
30.05.2015 22:54 10,3 C 9,4 C 85 % 0 lf 1016,2 hPa 0,0 l/m 0 min 0 min 0 W/m 8,4 km/h (2 Bft)
30.05.2015 22:56 10,3 C 9,4 C 85 % 0 lf 1016,2 hPa 0,0 l/m 0 min 0 min 0 W/m 6,3 km/h (2 Bft)
30.05.2015 22:58 10,3 C 9,4 C 85 % 0 lf 1016,2 hPa 0,0 l/m 0 min 0 min 0 W/m 6,3 km/h (2 Bft)
30.05.2015 23:00 10,3 C 9,4 C 85 % 0 lf 1016,1 hPa 0,0 l/m 0 min 0 min 0 W/m 8,4 km/h (2 Bft)
30.05.2015 23:02 10,3 C 9,4 C 85 % 0 lf 1016,1 hPa 0,0 l/m 0 min 0 min 0 W/m 8,4 km/h (2 Bft)
30.05.2015 23:04 10,3 C 9,4 C 86 % 0 lf 1016,1 hPa 0,0 l/m 0 min 0 min 0 W/m 8,4 km/h (2 Bft)
30.05.2015 23:06 10,2 C 9,4 C 86 % 0 lf 1016,1 hPa 0,0 l/m 0 min 0 min 0 W/m 6,3 km/h (2 Bft)
30.05.2015 23:08 10,2 C 9,4 C 86 % 0 lf 1016,1 hPa 0,0 l/m 0 min 0 min 0 W/m 8,4 km/h (2 Bft)
30.05.2015 23:10 10,2 C 9,4 C 86 % 0 lf 1016,1 hPa 0,0 l/m 0 min 0 min 0 W/m 8,4 km/h (2 Bft)
30.05.2015 23:12 10,2 C 9,4 C 86 % 0 lf 1016,1 hPa 0,0 l/m 0 min 0 min 0 W/m 10,5 km/h (2 Bft)
30.05.2015 23:14 10,2 C 9,4 C 86 % 0 lf 1016,1 hPa 0,0 l/m 0 min 0 min 0 W/m 10,5 km/h (2 Bft)
30.05.2015 23:16 10,2 C 9,4 C 86 % 0 lf 1016,1 hPa 0,0 l/m 0 min 0 min 0 W/m 6,3 km/h (2 Bft)
30.05.2015 23:18 10,2 C 9,4 C 86 % 0 lf 1016,1 hPa 0,0 l/m 0 min 0 min 0 W/m 6,3 km/h (2 Bft)
30.05.2015 23:20 10,2 C 9,4 C 86 % 0 lf 1016,1 hPa 0,0 l/m 0 min 0 min 0 W/m 8,4 km/h (2 Bft)
30.05.2015 23:22 10,2 C 8,9 C 86 % 0 lf 1016,1 hPa 0,0 l/m 0 min 0 min 0 W/m 10,5 km/h (2 Bft)
30.05.2015 23:24 10,1 C 8,9 C 86 % 0 lf 1016,1 hPa 0,0 l/m 0 min 0 min 0 W/m 10,5 km/h (2 Bft)
30.05.2015 23:26 10,1 C 8,9 C 86 % 0 lf 1016,1 hPa 0,0 l/m 0 min 0 min 0 W/m 8,4 km/h (2 Bft)
30.05.2015 23:28 10,1 C 8,9 C 86 % 0 lf 1016,1 hPa 0,0 l/m 0 min 0 min 0 W/m 8,4 km/h (2 Bft)
30.05.2015 23:30 10,1 C 8,9 C 86 % 0 lf 1016,1 hPa 0,0 l/m 0 min 0 min 0 W/m 8,4 km/h (2 Bft)
30.05.2015 23:32 10,1 C 8,9 C 86 % 0 lf 1016,1 hPa 0,0 l/m 0 min 0 min 0 W/m 6,3 km/h (2 Bft)
30.05.2015 23:34 10,1 C 8,9 C 86 % 0 lf 1016,1 hPa 0,0 l/m 0 min 0 min 0 W/m 8,4 km/h (2 Bft)
30.05.2015 23:36 10,1 C 8,9 C 86 % 0 lf 1016,1 hPa 0,0 l/m 0 min 0 min 0 W/m 10,5 km/h (2 Bft)
30.05.2015 23:38 10,0 C 8,9 C 86 % 0 lf 1016,0 hPa 0,0 l/m 0 min 0 min 0 W/m 8,4 km/h (2 Bft)
30.05.2015 23:40 10,0 C 8,9 C 86 % 0 lf 1016,0 hPa 0,0 l/m 0 min 0 min 0 W/m 8,4 km/h (2 Bft)
30.05.2015 23:42 10,0 C 8,9 C 86 % 0 lf 1015,9 hPa 0,0 l/m 0 min 0 min 0 W/m 8,4 km/h (2 Bft)
30.05.2015 23:44 9,9 C 8,9 C 86 % 0 lf 1016,1 hPa 0,0 l/m 0 min 0 min 0 W/m 10,5 km/h (2 Bft)
30.05.2015 23:46 9,9 C 8,9 C 86 % 0 lf 1016,0 hPa 0,0 l/m 0 min 0 min 0 W/m 10,5 km/h (2 Bft)
30.05.2015 23:48 9,9 C 8,9 C 87 % 0 lf 1016,0 hPa 0,0 l/m 0 min 0 min 0 W/m 10,5 km/h (2 Bft)
30.05.2015 23:50 9,9 C 8,9 C 86 % 0 lf 1016,0 hPa 0,0 l/m 0 min 0 min 0 W/m 10,5 km/h (2 Bft)
30.05.2015 23:52 9,9 C 8,9 C 87 % 0 lf 1016,0 hPa 0,0 l/m 0 min 0 min 0 W/m 10,5 km/h (2 Bft)
30.05.2015 23:54 9,9 C 8,9 C 87 % 0 lf 1016,0 hPa 0,0 l/m 0 min 0 min 0 W/m 10,5 km/h (2 Bft)
30.05.2015 23:56 9,8 C 8,9 C 87 % 0 lf 1015,9 hPa 0,0 l/m 0 min 0 min 0 W/m 8,4 km/h (2 Bft)
30.05.2015 23:58 9,8 C 8,9 C 87 % 0 lf 1015,9 hPa 0,0 l/m 0 min 0 min 0 W/m 10,5 km/h (2 Bft)
_ Min-Zeit 05:20 06:14 12:46 07:36 00:18 - - - - 16:42
Minimum _ 8,7 C 8,3 C 63 % 0 lf 1008,0 hPa - - - - 2,1 km/h (1 Bft)
_ Max-Zeit 12:42 10:22 02:52 00:00 22:20 11:32 06:36 00:00 12:38 12:14
Maximum _ 15,2 C 15,0 C 96 % 15 lf 1016,3 hPa 0,4 l/m 2 min 2 min 1098 W/m 52,3 km/h
W-SW (7 Bft)
Durchschnitt _ 11,2 C 10,1 C 84 % 7 lf 1013,0 hPa #3,4 l/m #6:42 h #2:29 h 260 W/m 16,2 km/h (3 Bft)
© 2015 W. Hausmann